Time,TemperatureF,DewpointF,PressureIn,WindDirection,WindDirectionDegrees,WindSpeedMPH,WindSpeedGustMPH,Humidity,HourlyPrecipIn,Conditions,Clouds,dailyrainin,SoftwareType,DateUTC
2013-02-22 00:00:00,40.6,38.3,30.04,SSE,157,0.0,0.0,92,0.00,,,0.00,WUHU21636XXSP,2013-02-22 08:00:00,
2013-02-22 00:02:00,40.6,38.3,30.04,SSE,157,0.0,0.0,92,0.00,,,0.00,WUHU21636XXSP,2013-02-22 08:02:00,
2013-02-22 00:04:00,40.6,38.3,30.04,SE,135,0.4,0.4,92,0.00,,,0.00,WUHU21636XXSP,2013-02-22 08:04:00,
2013-02-22 00:05:00,40.6,38.3,30.04,SE,135,0.4,0.4,92,0.00,,,0.00,WUHU21636XXSP,2013-02-22 08:05:00,
2013-02-22 00:07:00,40.6,38.3,30.04,SSE,157,0.0,0.4,92,0.00,,,0.00,WUHU21636XXSP,2013-02-22 08:07:00,
2013-02-22 00:09:00,40.6,38.3,30.04,SSE,157,0.0,0.4,92,0.00,,,0.00,WUHU21636XXSP,2013-02-22 08:09:00,
2013-02-22 00:10:00,40.6,38.0,30.03,South,180,0.0,0.4,91,0.00,,,0.00,WUHU21636XXSP,2013-02-22 08:10:00,
2013-02-22 00:11:00,40.6,38.0,30.04,South,180,0.0,0.4,91,0.00,,,0.00,WUHU21636XXSP,2013-02-22 08:11:00,
2013-02-22 00:12:00,40.6,38.3,30.03,SSE,157,2.6,2.6,92,0.00,,,0.00,WUHU21636XXSP,2013-02-22 08:12:00,
2013-02-22 00:14:00,40.6,38.3,30.04,SSE,157,2.6,2.6,92,0.00,,,0.00,WUHU21636XXSP,2013-02-22 08:14:00,
2013-02-22 00:15:00,40.6,38.3,30.03,SSE,157,2.6,2.6,92,0.00,,,0.00,WUHU21636XXSP,2013-02-22 08:15:00,
2013-02-22 00:16:00,40.6,38.3,30.03,SE,135,0.0,2.6,92,0.00,,,0.00,WUHU21636XXSP,2013-02-22 08:16:00,
2013-02-22 00:17:00,40.6,38.3,30.03,SE,135,0.0,2.6,92,0.00,,,0.00,WUHU21636XXSP,2013-02-22 08:17:00,
2013-02-22 00:19:00,40.6,38.3,30.03,South,180,3.1,3.1,92,0.00,,,0.00,WUHU21636XXSP,2013-02-22 08:19:00,
2013-02-22 00:20:00,40.6,38.3,30.03,South,180,3.1,3.1,92,0.00,,,0.00,WUHU21636XXSP,2013-02-22 08:20:00,
2013-02-22 00:21:00,40.6,38.3,30.03,South,180,3.1,3.1,92,0.00,,,0.00,WUHU21636XXSP,2013-02-22 08:21:00,
2013-02-22 00:22:00,40.6,38.3,30.03,SSE,157,2.0,3.1,92,0.00,,,0.00,WUHU21636XXSP,2013-02-22 08:22:00,
2013-02-22 00:24:00,40.6,38.3,30.03,SSE,157,2.0,3.1,92,0.00,,,0.00,WUHU21636XXSP,2013-02-22 08:24:00,
2013-02-22 00:25:00,40.6,38.3,30.04,South,184,3.9,10.0,92,0.00,,,0.00,WUHU21636XXSP,2013-02-22 08:25:00,
2013-02-22 00:26:00,40.6,38.3,30.03,SSW,194,2.8,10.0,92,0.00,,,0.00,WUHU21636XXSP,2013-02-22 08:26:00,
2013-02-22 00:27:00,40.6,38.3,30.03,SSW,202,0.6,10.0,92,0.00,,,0.00,WUHU21636XXSP,2013-02-22 08:27:00,
2013-02-22 00:29:00,40.6,38.3,30.03,SSW,202,0.6,10.0,92,0.00,,,0.00,WUHU21636XXSP,2013-02-22 08:29:00,
2013-02-22 00:31:00,40.6,38.3,30.03,SSW,202,3.5,10.0,92,0.00,,,0.00,WUHU21636XXSP,2013-02-22 08:31:00,
2013-02-22 00:32:00,40.6,38.3,30.03,SSW,202,3.5,10.0,92,0.00,,,0.00,WUHU21636XXSP,2013-02-22 08:32:00,
2013-02-22 00:34:00,40.6,38.3,30.03,SE,135,0.6,10.0,92,0.00,,,0.00,WUHU21636XXSP,2013-02-22 08:34:00,
2013-02-22 00:36:00,40.6,38.3,30.03,SE,135,0.6,3.5,92,0.00,,,0.00,WUHU21636XXSP,2013-02-22 08:36:00,
2013-02-22 00:38:00,40.6,38.3,30.03,SSE,157,0.0,3.5,92,0.00,,,0.00,WUHU21636XXSP,2013-02-22 08:38:00,
2013-02-22 00:39:00,40.6,38.3,30.03,SSE,157,0.0,3.5,92,0.00,,,0.00,WUHU21636XXSP,2013-02-22 08:39:00,
2013-02-22 00:41:00,40.6,38.3,30.03,South,180,0.0,3.5,92,0.00,,,0.00,WUHU21636XXSP,2013-02-22 08:41:00,
2013-02-22 00:42:00,40.6,38.3,30.03,South,180,0.0,0.6,92,0.00,,,0.00,WUHU21636XXSP,2013-02-22 08:42:00,
2013-02-22 00:43:00,40.6,38.3,30.03,ESE,112,0.0,0.6,92,0.00,,,0.00,WUHU21636XXSP,2013-02-22 08:43:00,
2013-02-22 00:45:00,40.6,38.3,30.03,ENE,67,0.0,0.6,92,0.00,,,0.00,WUHU21636XXSP,2013-02-22 08:45:00,
2013-02-22 00:46:00,40.6,38.3,30.03,ENE,67,0.0,0.0,92,0.00,,,0.00,WUHU21636XXSP,2013-02-22 08:46:00,
2013-02-22 00:47:00,40.6,38.3,30.03,SW,225,0.0,0.0,92,0.00,,,0.00,WUHU21636XXSP,2013-02-22 08:47:00,
2013-02-22 00:48:00,40.6,38.3,30.03,SW,225,0.0,0.0,92,0.00,,,0.00,WUHU21636XXSP,2013-02-22 08:48:00,
2013-02-22 00:50:00,40.6,38.3,30.03,West,270,0.0,0.0,92,0.00,,,0.00,WUHU21636XXSP,2013-02-22 08:50:00,
2013-02-22 00:51:00,40.6,38.3,30.03,South,180,0.0,0.0,92,0.00,,,0.00,WUHU21636XXSP,2013-02-22 08:51:00,
2013-02-22 00:52:00,40.6,38.3,30.03,South,180,0.0,0.0,92,0.00,,,0.00,WUHU21636XXSP,2013-02-22 08:52:00,
2013-02-22 00:53:00,40.8,38.5,30.03,South,180,0.0,0.0,92,0.00,,,0.00,WUHU21636XXSP,2013-02-22 08:53:00,
2013-02-22 00:55:00,40.8,38.5,30.03,South,180,0.0,0.0,92,0.00,,,0.00,WUHU21636XXSP,2013-02-22 08:55:00,
2013-02-22 00:56:00,40.8,38.5,30.03,SSE,157,0.0,0.0,92,0.00,,,0.00,WUHU21636XXSP,2013-02-22 08:56:00,
2013-02-22 00:57:00,40.8,38.5,30.03,SSE,157,0.0,0.0,92,0.00,,,0.00,WUHU21636XXSP,2013-02-22 08:57:00,
2013-02-22 00:58:00,40.8,38.5,30.03,SSE,157,0.0,0.0,92,0.00,,,0.00,WUHU21636XXSP,2013-02-22 08:58:00,
2013-02-22 01:00:00,40.8,38.5,30.03,SSW,202,5.1,5.1,92,0.00,,,0.00,WUHU21636XXSP,2013-02-22 09:00:00,
2013-02-22 01:01:00,40.8,38.5,30.03,SSW,202,5.1,5.1,92,0.00,,,0.00,WUHU21636XXSP,2013-02-22 09:01:00,
2013-02-22 01:02:00,40.8,38.5,30.03,SSW,202,5.1,5.1,92,0.00,,,0.00,WUHU21636XXSP,2013-02-22 09:02:00,
2013-02-22 01:03:00,40.8,38.5,30.03,SSW,202,5.1,5.1,92,0.00,,,0.00,WUHU21636XXSP,2013-02-22 09:03:00,
2013-02-22 01:05:00,40.8,38.5,30.03,SSW,202,5.1,5.1,92,0.00,,,0.00,WUHU21636XXSP,2013-02-22 09:05:00,
2013-02-22 01:06:00,40.8,38.5,30.03,SSE,157,0.0,5.1,92,0.00,,,0.00,WUHU21636XXSP,2013-02-22 09:06:00,
2013-02-22 01:07:00,40.8,38.5,30.03,SSE,157,0.0,5.1,92,0.00,,,0.00,WUHU21636XXSP,2013-02-22 09:07:00,
2013-02-22 01:08:00,40.8,38.5,30.03,North,0,0.0,5.1,92,0.00,,,0.00,WUHU21636XXSP,2013-02-22 09:08:00,
2013-02-22 01:10:00,40.8,38.5,30.03,North,0,0.0,5.1,92,0.00,,,0.00,WUHU21636XXSP,2013-02-22 09:10:00,
2013-02-22 01:11:00,40.8,38.5,30.03,SW,225,0.0,5.1,92,0.00,,,0.00,WUHU21636XXSP,2013-02-22 09:11:00,
2013-02-22 01:12:00,40.8,38.5,30.02,SW,225,0.0,5.1,92,0.00,,,0.00,WUHU21636XXSP,2013-02-22 09:12:00,
2013-02-22 01:13:00,41.0,38.4,30.03,SSW,202,1.5,5.1,91,0.00,,,0.00,WUHU21636XXSP,2013-02-22 09:13:00,
2013-02-22 01:15:00,41.0,38.4,30.03,SSW,202,1.5,1.5,91,0.00,,,0.00,WUHU21636XXSP,2013-02-22 09:15:00,
2013-02-22 01:16:00,41.0,38.4,30.03,SSW,202,1.5,1.5,91,0.00,,,0.00,WUHU21636XXSP,2013-02-22 09:16:00,
2013-02-22 01:17:00,41.2,38.6,30.03,WSW,247,0.0,1.5,91,0.00,,,0.00,WUHU21636XXSP,2013-02-22 09:17:00,
2013-02-22 01:19:00,41.2,38.6,30.02,WSW,247,0.0,1.5,91,0.00,,,0.00,WUHU21636XXSP,2013-02-22 09:19:00,
2013-02-22 01:20:00,41.2,38.6,30.02,SW,225,0.0,1.5,91,0.00,,,0.00,WUHU21636XXSP,2013-02-22 09:20:00,
2013-02-22 01:21:00,41.2,38.6,30.02,West,270,0.0,1.5,91,0.00,,,0.00,WUHU21636XXSP,2013-02-22 09:21:00,
2013-02-22 01:22:00,41.2,38.6,30.02,West,270,0.0,1.5,91,0.00,,,0.00,WUHU21636XXSP,2013-02-22 09:22:00,
2013-02-22 01:24:00,41.2,38.6,30.02,WNW,292,0.0,1.5,91,0.00,,,0.00,WUHU21636XXSP,2013-02-22 09:24:00,
2013-02-22 01:25:00,41.2,38.6,30.02,WNW,292,0.0,0.0,91,0.00,,,0.00,WUHU21636XXSP,2013-02-22 09:25:00,
2013-02-22 01:26:00,41.2,38.6,30.02,West,270,0.0,0.0,91,0.00,,,0.00,WUHU21636XXSP,2013-02-22 09:26:00,
2013-02-22 01:27:00,41.2,38.6,30.02,West,270,0.0,0.0,91,0.00,,,0.00,WUHU21636XXSP,2013-02-22 09:27:00,
2013-02-22 01:29:00,41.2,38.3,30.03,WSW,247,1.3,1.3,90,0.00,,,0.00,WUHU21636XXSP,2013-02-22 09:29:00,
2013-02-22 01:30:00,41.2,38.0,30.03,WSW,247,1.3,1.3,89,0.00,,,0.00,WUHU21636XXSP,2013-02-22 09:30:00,
2013-02-22 01:31:00,41.2,38.0,30.02,WSW,247,1.3,1.3,89,0.00,,,0.00,WUHU21636XXSP,2013-02-22 09:31:00,
2013-02-22 01:32:00,41.2,38.0,30.02,South,180,0.0,1.3,89,0.00,,,0.00,WUHU21636XXSP,2013-02-22 09:32:00,
2013-02-22 01:34:00,41.4,38.2,30.02,SW,225,3.3,3.3,89,0.00,,,0.00,WUHU21636XXSP,2013-02-22 09:34:00,
2013-02-22 01:35:00,41.4,38.2,30.02,SW,225,3.3,3.3,89,0.00,,,0.00,WUHU21636XXSP,2013-02-22 09:35:00,
2013-02-22 01:37:00,41.4,38.2,30.02,SW,230,2.5,3.3,89,0.00,,,0.00,WUHU21636XXSP,2013-02-22 09:37:00,
2013-02-22 01:38:00,41.4,38.2,30.02,WSW,238,1.9,3.3,89,0.00,,,0.00,WUHU21636XXSP,2013-02-22 09:38:00,
2013-02-22 01:39:00,41.4,37.9,30.02,WSW,247,1.5,3.3,88,0.00,,,0.00,WUHU21636XXSP,2013-02-22 09:39:00,
2013-02-22 01:40:00,41.4,37.9,30.02,West,270,0.0,3.3,88,0.00,,,0.00,WUHU21636XXSP,2013-02-22 09:40:00,
2013-02-22 01:42:00,41.5,38.0,30.02,West,270,3.1,3.3,88,0.00,,,0.00,WUHU21636XXSP,2013-02-22 09:42:00,
2013-02-22 01:43:00,41.5,37.8,30.02,West,270,3.1,3.3,87,0.00,,,0.00,WUHU21636XXSP,2013-02-22 09:43:00,
2013-02-22 01:44:00,41.5,37.8,30.01,WSW,247,0.0,3.3,87,0.00,,,0.00,WUHU21636XXSP,2013-02-22 09:44:00,
2013-02-22 01:46:00,41.5,37.8,30.02,South,180,0.0,3.3,87,0.00,,,0.00,WUHU21636XXSP,2013-02-22 09:46:00,
2013-02-22 01:47:00,41.5,37.8,30.02,SSE,157,0.0,3.1,87,0.00,,,0.00,WUHU21636XXSP,2013-02-22 09:47:00,
2013-02-22 01:48:00,41.5,37.8,30.02,SSE,157,0.0,3.1,87,0.00,,,0.00,WUHU21636XXSP,2013-02-22 09:48:00,
2013-02-22 01:49:00,41.5,37.5,30.01,NW,315,0.0,3.1,86,0.00,,,0.00,WUHU21636XXSP,2013-02-22 09:49:00,
2013-02-22 01:51:00,41.5,37.5,30.02,NW,315,0.0,3.1,86,0.00,,,0.00,WUHU21636XXSP,2013-02-22 09:51:00,
2013-02-22 01:52:00,41.5,37.5,30.02,SW,225,0.0,3.1,86,0.00,,,0.00,WUHU21636XXSP,2013-02-22 09:52:00,
2013-02-22 01:53:00,41.5,37.5,30.02,SW,225,0.0,0.0,86,0.00,,,0.00,WUHU21636XXSP,2013-02-22 09:53:00,
2013-02-22 01:55:00,41.5,37.5,30.01,SSE,157,3.3,3.3,86,0.00,,,0.00,WUHU21636XXSP,2013-02-22 09:55:00,
2013-02-22 01:56:00,41.5,37.5,30.01,South,180,4.9,4.9,86,0.00,,,0.00,WUHU21636XXSP,2013-02-22 09:56:00,
2013-02-22 01:58:00,41.5,37.5,30.02,South,180,6.7,7.1,86,0.00,,,0.00,WUHU21636XXSP,2013-02-22 09:58:00,
2013-02-22 02:00:00,41.5,37.5,30.01,SSW,193,2.9,7.1,86,0.00,,,0.00,WUHU21636XXSP,2013-02-22 10:00:00,
2013-02-22 02:01:00,41.5,37.8,30.01,SSW,202,2.0,7.1,87,0.00,,,0.00,WUHU21636XXSP,2013-02-22 10:01:00,
2013-02-22 02:03:00,41.5,37.8,30.01,SSW,202,1.3,7.1,87,0.00,,,0.00,WUHU21636XXSP,2013-02-22 10:03:00,
2013-02-22 02:05:00,41.5,37.8,30.01,SSW,202,1.3,7.1,87,0.00,,,0.00,WUHU21636XXSP,2013-02-22 10:05:00,
2013-02-22 02:06:00,41.5,37.8,30.01,SSW,202,1.3,7.1,87,0.00,,,0.00,WUHU21636XXSP,2013-02-22 10:06:00,
2013-02-22 02:08:00,41.5,37.8,30.01,SSE,157,1.5,6.7,87,0.00,,,0.00,WUHU21636XXSP,2013-02-22 10:08:00,
2013-02-22 02:10:00,41.5,37.8,30.01,East,90,2.6,2.6,87,0.00,,,0.00,WUHU21636XXSP,2013-02-22 10:10:00,
2013-02-22 02:11:00,41.5,37.8,30.01,East,90,2.6,2.6,87,0.00,,,0.00,WUHU21636XXSP,2013-02-22 10:11:00,
2013-02-22 02:13:00,41.5,37.8,30.01,SSE,157,2.6,2.6,87,0.00,,,0.00,WUHU21636XXSP,2013-02-22 10:13:00,
2013-02-22 02:15:00,41.5,37.8,30.01,SSE,157,2.6,2.6,87,0.00,,,0.00,WUHU21636XXSP,2013-02-22 10:15:00,
2013-02-22 02:16:00,41.5,38.0,30.01,SSE,157,2.6,2.6,88,0.00,,,0.00,WUHU21636XXSP,2013-02-22 10:16:00,
2013-02-22 02:18:00,41.4,37.9,30.00,West,270,0.0,2.6,88,0.00,,,0.00,WUHU21636XXSP,2013-02-22 10:18:00,
2013-02-22 02:20:00,41.4,37.9,30.00,South,180,4.2,4.2,88,0.00,,,0.00,WUHU21636XXSP,2013-02-22 10:20:00,
2013-02-22 02:22:00,41.4,37.9,30.00,South,180,4.2,4.2,88,0.00,,,0.00,WUHU21636XXSP,2013-02-22 10:22:00,
2013-02-22 02:23:00,41.4,37.9,30.00,South,180,4.2,4.2,88,0.00,,,0.00,WUHU21636XXSP,2013-02-22 10:23:00,
2013-02-22 02:24:00,41.4,37.9,30.00,South,180,4.2,4.2,88,0.00,,,0.00,WUHU21636XXSP,2013-02-22 10:24:00,
2013-02-22 02:25:00,41.4,37.7,30.00,West,270,2.2,4.2,87,0.00,,,0.00,WUHU21636XXSP,2013-02-22 10:25:00,
2013-02-22 02:27:00,41.4,37.7,30.00,SW,225,2.9,4.2,87,0.00,,,0.00,WUHU21636XXSP,2013-02-22 10:27:00,
2013-02-22 02:28:00,41.4,37.7,30.00,SW,225,2.9,4.2,87,0.00,,,0.00,WUHU21636XXSP,2013-02-22 10:28:00,
2013-02-22 02:29:00,41.4,37.7,30.00,SW,225,2.9,4.2,87,0.00,,,0.00,WUHU21636XXSP,2013-02-22 10:29:00,
2013-02-22 02:30:00,41.4,37.7,30.00,SW,225,0.0,4.2,87,0.00,,,0.00,WUHU21636XXSP,2013-02-22 10:30:00,
2013-02-22 02:32:00,41.4,37.4,30.01,WNW,292,3.5,3.5,86,0.00,,,0.00,WUHU21636XXSP,2013-02-22 10:32:00,
2013-02-22 02:34:00,41.4,37.4,30.01,West,264,3.2,3.5,86,0.00,,,0.00,WUHU21636XXSP,2013-02-22 10:34:00,
2013-02-22 02:35:00,41.4,37.4,30.01,WSW,247,2.3,3.5,86,0.00,,,0.00,WUHU21636XXSP,2013-02-22 10:35:00,
2013-02-22 02:37:00,41.5,37.5,30.01,WSW,247,0.8,3.5,86,0.00,,,0.00,WUHU21636XXSP,2013-02-22 10:37:00,
2013-02-22 02:39:00,41.5,37.5,30.01,WSW,247,0.0,3.5,86,0.00,,,0.00,WUHU21636XXSP,2013-02-22 10:39:00,
2013-02-22 02:41:00,41.4,37.4,30.01,West,270,1.5,3.5,86,0.00,,,0.00,WUHU21636XXSP,2013-02-22 10:41:00,
2013-02-22 02:42:00,41.4,37.4,30.01,ESE,112,3.8,3.8,86,0.00,,,0.00,WUHU21636XXSP,2013-02-22 10:42:00,
2013-02-22 02:44:00,41.4,37.4,30.01,ESE,121,2.8,3.8,86,0.00,,,0.00,WUHU21636XXSP,2013-02-22 10:44:00,
2013-02-22 02:46:00,41.4,37.4,30.01,SSW,202,1.1,3.8,86,0.00,,,0.00,WUHU21636XXSP,2013-02-22 10:46:00,
2013-02-22 02:47:00,41.4,37.4,30.01,SSW,202,1.1,3.8,86,0.00,,,0.00,WUHU21636XXSP,2013-02-22 10:47:00,
2013-02-22 02:49:00,41.4,37.4,30.00,SW,225,0.0,3.8,86,0.00,,,0.00,WUHU21636XXSP,2013-02-22 10:49:00,
2013-02-22 02:51:00,41.4,37.4,30.00,SW,214,4.1,6.0,86,0.00,,,0.00,WUHU21636XXSP,2013-02-22 10:51:00,
2013-02-22 02:52:00,41.4,37.4,30.00,WSW,247,2.2,6.0,86,0.00,,,0.00,WUHU21636XXSP,2013-02-22 10:52:00,
2013-02-22 02:54:00,41.2,37.2,30.00,WSW,247,1.5,6.0,86,0.00,,,0.00,WUHU21636XXSP,2013-02-22 10:54:00,
2013-02-22 02:56:00,41.2,37.5,30.00,SW,225,2.2,6.0,87,0.00,,,0.00,WUHU21636XXSP,2013-02-22 10:56:00,
2013-02-22 02:58:00,41.2,37.5,30.00,SW,225,2.2,6.0,87,0.00,,,0.00,WUHU21636XXSP,2013-02-22 10:58:00,
2013-02-22 02:59:00,41.2,37.5,30.00,SSW,202,0.0,6.0,87,0.00,,,0.00,WUHU21636XXSP,2013-02-22 10:59:00,
2013-02-22 03:01:00,41.2,37.8,30.00,SSW,202,9.3,11.8,88,0.00,,,0.00,WUHU21636XXSP,2013-02-22 11:01:00,
2013-02-22 03:03:00,41.2,37.8,30.00,South,187,4.8,12.7,88,0.00,,,0.00,WUHU21636XXSP,2013-02-22 11:03:00,
2013-02-22 03:04:00,41.2,37.8,30.00,SW,225,1.1,12.7,88,0.00,,,0.00,WUHU21636XXSP,2013-02-22 11:04:00,
2013-02-22 03:06:00,41.2,37.8,30.00,SW,225,1.1,12.7,88,0.00,,,0.00,WUHU21636XXSP,2013-02-22 11:06:00,
2013-02-22 03:08:00,41.2,37.8,30.00,SSW,202,0.6,12.7,88,0.00,,,0.00,WUHU21636XXSP,2013-02-22 11:08:00,
2013-02-22 03:09:00,41.2,37.8,30.00,SSW,202,0.6,12.7,88,0.00,,,0.00,WUHU21636XXSP,2013-02-22 11:09:00,
2013-02-22 03:10:00,41.2,37.8,30.00,SSW,202,0.6,12.7,88,0.00,,,0.00,WUHU21636XXSP,2013-02-22 11:10:00,
2013-02-22 03:11:00,41.2,37.8,30.00,ENE,67,1.3,12.7,88,0.00,,,0.00,WUHU21636XXSP,2013-02-22 11:11:00,
2013-02-22 03:13:00,41.2,37.8,30.00,ENE,67,1.3,1.3,88,0.00,,,0.00,WUHU21636XXSP,2013-02-22 11:13:00,
2013-02-22 03:15:00,41.2,37.8,30.01,ENE,67,1.3,1.3,88,0.00,,,0.00,WUHU21636XXSP,2013-02-22 11:15:00,
2013-02-22 03:16:00,41.2,38.0,30.01,West,270,0.0,1.3,89,0.00,,,0.00,WUHU21636XXSP,2013-02-22 11:16:00,
2013-02-22 03:19:00,41.0,37.8,30.01,SSW,202,0.0,1.3,89,0.00,,,0.00,WUHU21636XXSP,2013-02-22 11:19:00,
2013-02-22 03:20:00,41.2,38.0,30.01,NNE,22,0.0,1.3,89,0.00,,,0.00,WUHU21636XXSP,2013-02-22 11:20:00,
2013-02-22 03:22:00,41.2,38.0,30.00,NNE,22,0.0,1.3,89,0.00,,,0.00,WUHU21636XXSP,2013-02-22 11:22:00,
2013-02-22 03:24:00,40.8,37.7,29.99,SSE,157,2.1,8.7,89,0.00,,,0.00,WUHU21636XXSP,2013-02-22 11:24:00,
2013-02-22 03:25:00,40.8,37.7,29.99,SSE,157,1.7,8.7,89,0.00,,,0.00,WUHU21636XXSP,2013-02-22 11:25:00,
2013-02-22 03:26:00,41.0,37.8,29.99,SSE,157,1.7,8.7,89,0.00,,,0.00,WUHU21636XXSP,2013-02-22 11:26:00,
2013-02-22 03:27:00,41.0,37.8,29.99,SSE,157,1.7,8.7,89,0.00,,,0.00,WUHU21636XXSP,2013-02-22 11:27:00,
2013-02-22 03:29:00,40.8,37.9,29.98,SSE,156,6.4,12.5,90,0.00,,,0.00,WUHU21636XXSP,2013-02-22 11:29:00,
2013-02-22 03:30:00,40.8,37.9,29.98,SSE,155,5.9,12.5,90,0.00,,,0.00,WUHU21636XXSP,2013-02-22 11:30:00,
2013-02-22 03:31:00,40.8,37.9,29.98,SSE,168,4.5,12.5,90,0.00,,,0.00,WUHU21636XXSP,2013-02-22 11:31:00,
2013-02-22 03:32:00,40.8,37.9,29.98,South,180,4.2,12.5,90,0.00,,,0.00,WUHU21636XXSP,2013-02-22 11:32:00,
2013-02-22 03:34:00,40.8,38.2,29.98,SSE,163,3.6,12.5,91,0.00,,,0.00,WUHU21636XXSP,2013-02-22 11:34:00,
2013-02-22 03:35:00,40.8,38.2,29.98,SSE,150,3.2,12.5,91,0.00,,,0.00,WUHU21636XXSP,2013-02-22 11:35:00,
2013-02-22 03:36:00,40.8,38.2,29.98,SE,137,2.9,12.5,91,0.00,,,0.00,WUHU21636XXSP,2013-02-22 11:36:00,
2013-02-22 03:38:00,40.8,38.2,29.97,SW,225,2.6,12.5,91,0.00,,,0.00,WUHU21636XXSP,2013-02-22 11:38:00,
2013-02-22 03:40:00,40.8,38.2,29.97,SSE,162,3.5,10.5,91,0.00,,,0.00,WUHU21636XXSP,2013-02-22 11:40:00,
2013-02-22 03:41:00,40.6,38.0,29.97,SSW,202,5.8,10.5,91,0.00,,,0.00,WUHU21636XXSP,2013-02-22 11:41:00,
2013-02-22 03:43:00,40.6,38.0,29.97,South,182,6.4,17.0,91,0.00,,,0.00,WUHU21636XXSP,2013-02-22 11:43:00,
2013-02-22 03:45:00,40.6,38.0,29.97,South,180,2.4,17.0,91,0.00,,,0.00,WUHU21636XXSP,2013-02-22 11:45:00,
2013-02-22 03:46:00,40.6,38.0,29.97,South,180,2.3,17.0,91,0.00,,,0.00,WUHU21636XXSP,2013-02-22 11:46:00,
2013-02-22 03:48:00,40.6,38.0,29.97,SW,225,4.6,17.0,91,0.00,,,0.00,WUHU21636XXSP,2013-02-22 11:48:00,
2013-02-22 03:50:00,40.6,38.3,29.97,SSW,207,3.7,17.0,92,0.00,,,0.00,WUHU21636XXSP,2013-02-22 11:50:00,
2013-02-22 03:51:00,40.6,38.3,29.97,SSE,155,3.1,17.0,92,0.00,,,0.00,WUHU21636XXSP,2013-02-22 11:51:00,
2013-02-22 03:53:00,40.6,38.3,29.97,South,180,6.2,13.1,92,0.00,,,0.00,WUHU21636XXSP,2013-02-22 11:53:00,
2013-02-22 03:55:00,40.6,38.3,29.96,SE,135,2.4,13.1,92,0.00,,,0.00,WUHU21636XXSP,2013-02-22 11:55:00,
2013-02-22 03:56:00,40.6,38.0,29.96,SE,138,1.7,13.1,91,0.00,,,0.00,WUHU21636XXSP,2013-02-22 11:56:00,
2013-02-22 03:58:00,40.6,38.0,29.96,SW,225,1.7,13.1,91,0.00,,,0.00,WUHU21636XXSP,2013-02-22 11:58:00,
2013-02-22 04:00:00,40.6,38.0,29.96,SW,221,1.4,13.1,91,0.00,,,0.00,WUHU21636XXSP,2013-02-22 12:00:00,
2013-02-22 04:01:00,40.6,38.0,29.96,SSW,212,1.0,13.1,91,0.00,,,0.00,WUHU21636XXSP,2013-02-22 12:01:00,
2013-02-22 04:03:00,40.6,38.0,29.96,SSW,202,0.8,2.4,91,0.00,,,0.00,WUHU21636XXSP,2013-02-22 12:03:00,
2013-02-22 04:06:00,40.6,38.0,29.96,SSW,202,0.0,1.7,91,0.00,,,0.00,WUHU21636XXSP,2013-02-22 12:06:00,
2013-02-22 04:08:00,40.6,38.3,29.97,SSW,197,3.5,8.5,92,0.00,,,0.00,WUHU21636XXSP,2013-02-22 12:08:00,
2013-02-22 04:11:00,40.6,38.3,29.96,South,180,2.0,8.5,92,0.00,,,0.00,WUHU21636XXSP,2013-02-22 12:11:00,
2013-02-22 04:13:00,40.6,38.3,29.97,NW,315,0.0,8.5,92,0.00,,,0.00,WUHU21636XXSP,2013-02-22 12:13:00,
2013-02-22 04:16:00,40.6,38.6,29.97,SW,225,2.0,8.5,93,0.00,,,0.00,WUHU21636XXSP,2013-02-22 12:16:00,
2013-02-22 04:17:00,40.6,38.6,29.97,SW,225,2.0,4.6,93,0.00,,,0.00,WUHU21636XXSP,2013-02-22 12:17:00,
2013-02-22 04:19:00,40.6,38.6,29.97,SW,225,2.0,2.0,93,0.00,,,0.00,WUHU21636XXSP,2013-02-22 12:19:00,
2013-02-22 04:21:00,40.6,38.6,29.97,SW,225,0.0,2.0,93,0.00,,,0.00,WUHU21636XXSP,2013-02-22 12:21:00,
2013-02-22 04:22:00,40.6,38.6,29.97,SW,225,0.0,2.0,93,0.00,,,0.00,WUHU21636XXSP,2013-02-22 12:22:00,
2013-02-22 04:24:00,40.6,38.6,29.97,WSW,247,0.0,2.0,93,0.00,,,0.00,WUHU21636XXSP,2013-02-22 12:24:00,
2013-02-22 04:27:00,40.6,38.6,29.96,South,180,5.5,6.2,93,0.00,,,0.00,WUHU21636XXSP,2013-02-22 12:27:00,
2013-02-22 04:29:00,40.6,38.6,29.96,SSE,159,1.8,6.2,93,0.00,,,0.00,WUHU21636XXSP,2013-02-22 12:29:00,
2013-02-22 04:32:00,40.6,38.6,29.95,SSE,157,2.0,6.2,93,0.00,,,0.00,WUHU21636XXSP,2013-02-22 12:32:00,
2013-02-22 04:34:00,40.6,38.9,29.94,ESE,112,4.6,6.2,94,0.00,,,0.00,WUHU21636XXSP,2013-02-22 12:34:00,
2013-02-22 04:37:00,40.6,38.9,29.94,SE,135,4.9,8.0,94,0.00,,,0.00,WUHU21636XXSP,2013-02-22 12:37:00,
2013-02-22 04:39:00,40.6,38.9,29.94,SSW,202,9.8,18.5,94,0.00,,,0.00,WUHU21636XXSP,2013-02-22 12:39:00,
2013-02-22 04:42:00,40.6,38.9,29.94,South,180,5.7,18.5,94,0.00,,,0.00,WUHU21636XXSP,2013-02-22 12:42:00,
2013-02-22 04:44:00,40.6,38.9,29.94,WSW,247,3.3,18.5,94,0.00,,,0.00,WUHU21636XXSP,2013-02-22 12:44:00,
2013-02-22 04:47:00,40.6,38.6,29.94,South,189,4.7,18.5,93,0.00,,,0.00,WUHU21636XXSP,2013-02-22 12:47:00,
2013-02-22 04:50:00,40.6,38.6,29.94,SSW,202,7.6,16.5,93,0.00,,,0.00,WUHU21636XXSP,2013-02-22 12:50:00,
2013-02-22 04:52:00,40.6,38.6,29.94,West,263,1.9,16.5,93,0.00,,,0.00,WUHU21636XXSP,2013-02-22 12:52:00,
2013-02-22 04:55:00,40.6,38.6,29.94,SSW,202,9.8,16.5,93,0.00,,,0.00,WUHU21636XXSP,2013-02-22 12:55:00,
2013-02-22 04:57:00,40.6,38.6,29.94,SSE,152,5.4,16.5,93,0.00,,,0.00,WUHU21636XXSP,2013-02-22 12:57:00,
2013-02-22 04:58:00,40.6,38.6,29.94,SSW,202,7.1,16.5,93,0.00,,,0.00,WUHU21636XXSP,2013-02-22 12:58:00,
2013-02-22 05:00:00,40.8,38.8,29.93,South,171,4.2,16.5,93,0.00,,,0.00,WUHU21636XXSP,2013-02-22 13:00:00,
2013-02-22 05:02:00,40.8,38.8,29.94,SSE,157,4.4,16.5,93,0.00,,,0.00,WUHU21636XXSP,2013-02-22 13:02:00,
2013-02-22 05:03:00,40.8,38.8,29.93,SSE,157,4.4,16.5,93,0.00,,,0.00,WUHU21636XXSP,2013-02-22 13:03:00,
2013-02-22 05:05:00,40.8,38.8,29.93,SSE,157,4.4,16.5,93,0.00,,,0.00,WUHU21636XXSP,2013-02-22 13:05:00,
2013-02-22 05:07:00,40.8,38.8,29.93,ESE,112,0.0,15.4,93,0.00,,,0.00,WUHU21636XXSP,2013-02-22 13:07:00,
2013-02-22 05:08:00,40.8,38.8,29.93,ESE,112,1.3,7.3,93,0.00,,,0.00,WUHU21636XXSP,2013-02-22 13:08:00,
2013-02-22 05:10:00,40.8,38.8,29.93,SSW,202,4.2,4.4,93,0.00,,,0.00,WUHU21636XXSP,2013-02-22 13:10:00,
2013-02-22 05:12:00,40.6,38.6,29.93,SSW,202,4.2,4.4,93,0.00,,,0.00,WUHU21636XXSP,2013-02-22 13:12:00,
2013-02-22 05:13:00,40.6,38.6,29.93,SSW,202,4.2,4.4,93,0.00,,,0.00,WUHU21636XXSP,2013-02-22 13:13:00,
2013-02-22 05:15:00,40.6,38.6,29.93,South,180,6.4,12.0,93,0.00,,,0.00,WUHU21636XXSP,2013-02-22 13:15:00,
2013-02-22 05:17:00,40.6,38.6,29.93,SSE,157,7.6,14.7,93,0.00,,,0.00,WUHU21636XXSP,2013-02-22 13:17:00,
2013-02-22 05:18:00,40.6,38.6,29.93,South,177,6.9,14.7,93,0.00,,,0.00,WUHU21636XXSP,2013-02-22 13:18:00,
2013-02-22 05:20:00,40.6,38.6,29.93,SSE,160,3.0,14.7,93,0.00,,,0.00,WUHU21636XXSP,2013-02-22 13:20:00,
2013-02-22 05:22:00,40.8,39.1,29.93,SSE,157,3.8,14.7,94,0.00,,,0.00,WUHU21636XXSP,2013-02-22 13:22:00,
2013-02-22 05:23:00,40.8,39.1,29.92,SSE,157,4.0,14.7,94,0.00,,,0.00,WUHU21636XXSP,2013-02-22 13:23:00,
2013-02-22 05:25:00,40.8,39.1,29.92,ESE,112,9.1,14.7,94,0.00,,,0.00,WUHU21636XXSP,2013-02-22 13:25:00,
2013-02-22 05:27:00,40.8,39.1,29.92,SE,135,8.5,17.0,94,0.00,,,0.00,WUHU21636XXSP,2013-02-22 13:27:00,
2013-02-22 05:28:00,40.8,39.1,29.92,SSE,164,5.3,17.0,94,0.00,,,0.00,WUHU21636XXSP,2013-02-22 13:28:00,
2013-02-22 05:30:00,40.8,39.1,29.91,South,182,3.4,17.0,94,0.00,,,0.00,WUHU21636XXSP,2013-02-22 13:30:00,
2013-02-22 05:32:00,40.8,39.1,29.91,SSE,152,3.3,17.0,94,0.00,,,0.00,WUHU21636XXSP,2013-02-22 13:32:00,
2013-02-22 05:33:00,40.8,39.1,29.91,SE,135,2.2,17.0,94,0.00,,,0.00,WUHU21636XXSP,2013-02-22 13:33:00,
2013-02-22 05:35:00,40.8,39.1,29.91,South,175,0.9,17.0,94,0.00,,,0.00,WUHU21636XXSP,2013-02-22 13:35:00,
2013-02-22 05:37:00,40.8,39.1,29.91,SSE,157,4.6,9.1,94,0.00,,,0.00,WUHU21636XXSP,2013-02-22 13:37:00,
2013-02-22 05:38:00,40.8,39.1,29.91,SSW,202,7.1,9.1,94,0.00,,,0.00,WUHU21636XXSP,2013-02-22 13:38:00,
2013-02-22 05:40:00,40.8,39.1,29.91,SSE,157,3.3,9.1,94,0.00,,,0.00,WUHU21636XXSP,2013-02-22 13:40:00,
2013-02-22 05:42:00,40.8,39.1,29.91,SE,144,4.6,14.9,94,0.00,,,0.00,WUHU21636XXSP,2013-02-22 13:42:00,
2013-02-22 05:43:00,40.8,39.1,29.91,SE,141,4.7,14.9,94,0.00,,,0.00,WUHU21636XXSP,2013-02-22 13:43:00,
2013-02-22 05:46:00,40.8,39.1,29.90,SE,142,3.1,14.9,94,0.00,,,0.00,WUHU21636XXSP,2013-02-22 13:46:00,
2013-02-22 05:48:00,40.8,39.4,29.90,SSW,202,4.6,14.9,95,0.00,,,0.00,WUHU21636XXSP,2013-02-22 13:48:00,
2013-02-22 05:49:00,40.6,39.2,29.90,SSW,202,4.5,14.9,95,0.00,,,0.00,WUHU21636XXSP,2013-02-22 13:49:00,
2013-02-22 05:51:00,40.6,39.2,29.90,SSW,202,3.5,14.9,95,0.00,,,0.00,WUHU21636XXSP,2013-02-22 13:51:00,
2013-02-22 05:53:00,40.6,39.2,29.90,South,180,4.4,4.6,95,0.00,,,0.00,WUHU21636XXSP,2013-02-22 13:53:00,
2013-02-22 05:54:00,40.6,39.2,29.90,South,180,4.4,4.6,95,0.00,,,0.00,WUHU21636XXSP,2013-02-22 13:54:00,
2013-02-22 05:56:00,40.6,39.2,29.90,South,180,4.4,4.6,95,0.00,,,0.00,WUHU21636XXSP,2013-02-22 13:56:00,
2013-02-22 05:58:00,40.8,39.4,29.90,SSE,157,2.4,4.6,95,0.00,,,0.00,WUHU21636XXSP,2013-02-22 13:58:00,
2013-02-22 05:59:00,40.8,39.4,29.90,SSE,157,2.4,4.4,95,0.00,,,0.00,WUHU21636XXSP,2013-02-22 13:59:00,
2013-02-22 06:02:00,40.6,39.2,29.89,ESE,113,4.9,4.9,95,0.00,,,0.00,WUHU21636XXSP,2013-02-22 14:02:00,
2013-02-22 06:03:00,40.6,39.2,29.90,SSW,212,4.0,4.9,95,0.00,,,0.00,WUHU21636XXSP,2013-02-22 14:03:00,
2013-02-22 06:04:00,40.6,38.9,29.89,SW,225,3.8,4.9,94,0.00,,,0.00,WUHU21636XXSP,2013-02-22 14:04:00,
2013-02-22 06:07:00,40.6,38.9,29.90,SSE,157,0.0,4.9,94,0.00,,,0.00,WUHU21636XXSP,2013-02-22 14:07:00,
2013-02-22 06:08:00,40.8,39.1,29.89,WNW,292,1.3,4.9,94,0.00,,,0.00,WUHU21636XXSP,2013-02-22 14:08:00,
2013-02-22 06:09:00,40.8,39.1,29.89,WNW,292,1.3,4.9,94,0.00,,,0.00,WUHU21636XXSP,2013-02-22 14:09:00,
2013-02-22 06:12:00,40.8,39.1,29.89,WNW,292,1.3,3.8,94,0.00,,,0.00,WUHU21636XXSP,2013-02-22 14:12:00,
2013-02-22 06:13:00,40.8,39.1,29.89,South,180,5.8,9.8,94,0.00,,,0.00,WUHU21636XXSP,2013-02-22 14:13:00,
2013-02-22 06:14:00,40.8,39.1,29.89,South,178,5.1,9.8,94,0.00,,,0.00,WUHU21636XXSP,2013-02-22 14:14:00,
2013-02-22 06:17:00,40.8,39.1,29.89,South,180,3.1,9.8,94,0.00,,,0.00,WUHU21636XXSP,2013-02-22 14:17:00,
2013-02-22 06:18:00,40.8,39.1,29.88,South,180,5.3,9.8,94,0.00,,,0.00,WUHU21636XXSP,2013-02-22 14:18:00,
2013-02-22 06:19:00,40.6,38.9,29.88,SSW,202,6.0,9.8,94,0.00,,,0.00,WUHU21636XXSP,2013-02-22 14:19:00,
2013-02-22 06:22:00,40.6,38.9,29.88,SSW,202,0.9,10.7,94,0.00,,,0.00,WUHU21636XXSP,2013-02-22 14:22:00,
2013-02-22 06:23:00,40.6,38.9,29.88,SE,135,2.4,10.7,94,0.00,,,0.00,WUHU21636XXSP,2013-02-22 14:23:00,
2013-02-22 06:24:00,40.6,39.2,29.88,SSW,202,2.6,10.7,95,0.00,,,0.00,WUHU21636XXSP,2013-02-22 14:24:00,
2013-02-22 06:27:00,40.6,39.2,29.87,SSE,157,6.9,10.7,95,0.00,,,0.00,WUHU21636XXSP,2013-02-22 14:27:00,
2013-02-22 06:29:00,40.6,39.2,29.87,SSE,152,6.2,12.5,95,0.00,,,0.00,WUHU21636XXSP,2013-02-22 14:29:00,
2013-02-22 06:30:00,40.6,39.2,29.87,South,180,3.8,12.5,95,0.00,,,0.00,WUHU21636XXSP,2013-02-22 14:30:00,
2013-02-22 06:32:00,40.6,39.2,29.87,SE,144,1.9,12.5,95,0.00,,,0.00,WUHU21636XXSP,2013-02-22 14:32:00,
2013-02-22 06:34:00,40.6,39.2,29.87,SSE,157,8.9,14.5,95,0.00,,,0.00,WUHU21636XXSP,2013-02-22 14:34:00,
2013-02-22 06:35:00,40.6,39.2,29.86,SSE,155,7.0,15.6,95,0.00,,,0.00,WUHU21636XXSP,2013-02-22 14:35:00,
2013-02-22 06:37:00,40.6,39.2,29.86,SSE,162,6.6,20.5,95,0.00,,,0.00,WUHU21636XXSP,2013-02-22 14:37:00,
2013-02-22 06:39:00,40.6,39.2,29.86,SSW,192,1.3,20.5,95,0.00,,,0.00,WUHU21636XXSP,2013-02-22 14:39:00,
2013-02-22 06:40:00,40.6,39.2,29.86,South,180,8.2,20.5,95,0.00,,,0.00,WUHU21636XXSP,2013-02-22 14:40:00,
2013-02-22 06:42:00,40.6,39.2,29.86,South,183,3.4,20.5,95,0.00,,,0.00,WUHU21636XXSP,2013-02-22 14:42:00,
2013-02-22 06:44:00,40.6,39.2,29.86,SE,139,2.8,20.5,95,0.00,,,0.00,WUHU21636XXSP,2013-02-22 14:44:00,
2013-02-22 06:45:00,40.6,39.2,29.86,ESE,107,2.1,20.5,95,0.00,,,0.00,WUHU21636XXSP,2013-02-22 14:45:00,
2013-02-22 06:47:00,40.6,39.2,29.86,South,172,6.9,14.0,95,0.00,,,0.00,WUHU21636XXSP,2013-02-22 14:47:00,
2013-02-22 06:49:00,40.6,39.2,29.86,SE,135,9.8,17.8,95,0.00,,,0.00,WUHU21636XXSP,2013-02-22 14:49:00,
2013-02-22 06:50:00,40.6,39.2,29.85,SSE,151,6.1,17.8,95,0.02,,,0.02,WUHU21636XXSP,2013-02-22 14:50:00,
2013-02-22 06:53:00,40.6,39.2,29.85,South,180,5.8,17.8,95,0.02,,,0.02,WUHU21636XXSP,2013-02-22 14:53:00,
2013-02-22 06:54:00,40.6,39.2,29.85,SSE,157,6.2,17.8,95,0.02,,,0.02,WUHU21636XXSP,2013-02-22 14:54:00,
2013-02-22 06:55:00,40.6,39.2,29.85,South,180,11.8,26.3,95,0.02,,,0.02,WUHU21636XXSP,2013-02-22 14:55:00,
2013-02-22 06:58:00,40.6,39.2,29.86,SSW,196,7.3,26.3,95,0.02,,,0.02,WUHU21636XXSP,2013-02-22 14:58:00,
2013-02-22 06:59:00,40.6,39.2,29.86,SSW,202,5.5,26.3,95,0.02,,,0.02,WUHU21636XXSP,2013-02-22 14:59:00,
2013-02-22 07:00:00,40.6,39.2,29.86,SSW,195,5.1,26.3,95,0.02,,,0.02,WUHU21636XXSP,2013-02-22 15:00:00,
2013-02-22 07:04:00,40.6,39.2,29.86,NW,315,3.3,26.3,95,0.02,,,0.02,WUHU21636XXSP,2013-02-22 15:04:00,
2013-02-22 07:05:00,40.6,39.2,29.86,NNE,22,3.3,23.4,95,0.02,,,0.02,WUHU21636XXSP,2013-02-22 15:05:00,
2013-02-22 07:09:00,40.6,39.5,29.86,SE,135,2.9,10.2,96,0.02,,,0.02,WUHU21636XXSP,2013-02-22 15:09:00,
2013-02-22 07:10:00,40.6,39.5,29.86,SE,135,2.9,6.7,96,0.02,,,0.02,WUHU21636XXSP,2013-02-22 15:10:00,
2013-02-22 07:11:00,40.6,39.5,29.86,SE,135,2.9,3.3,96,0.02,,,0.02,WUHU21636XXSP,2013-02-22 15:11:00,
2013-02-22 07:14:00,40.6,39.5,29.86,South,180,3.1,3.3,96,0.02,,,0.02,WUHU21636XXSP,2013-02-22 15:14:00,
2013-02-22 07:15:00,40.6,39.5,29.86,South,180,3.1,3.3,96,0.02,,,0.02,WUHU21636XXSP,2013-02-22 15:15:00,
2013-02-22 07:16:00,40.6,39.5,29.86,SSE,157,0.0,3.3,96,0.02,,,0.02,WUHU21636XXSP,2013-02-22 15:16:00,
2013-02-22 07:19:00,40.6,39.5,29.86,SSE,157,5.1,10.0,96,0.02,,,0.02,WUHU21636XXSP,2013-02-22 15:19:00,
2013-02-22 07:20:00,40.6,39.5,29.86,SSE,166,4.1,10.0,96,0.02,,,0.02,WUHU21636XXSP,2013-02-22 15:20:00,
2013-02-22 07:21:00,40.6,39.5,29.86,SSE,157,3.1,10.0,96,0.02,,,0.02,WUHU21636XXSP,2013-02-22 15:21:00,
2013-02-22 07:22:00,40.6,39.5,29.86,SSE,157,3.1,10.0,96,0.02,,,0.02,WUHU21636XXSP,2013-02-22 15:22:00,
2013-02-22 07:25:00,40.6,39.5,29.86,SSE,157,2.2,10.0,96,0.02,,,0.02,WUHU21636XXSP,2013-02-22 15:25:00,
2013-02-22 07:26:00,40.6,39.5,29.86,SSW,202,2.6,10.0,96,0.02,,,0.02,WUHU21636XXSP,2013-02-22 15:26:00,
2013-02-22 07:27:00,40.6,39.5,29.86,SSW,202,2.6,10.0,96,0.02,,,0.02,WUHU21636XXSP,2013-02-22 15:27:00,
2013-02-22 07:30:00,40.8,39.7,29.86,SE,135,2.2,3.1,96,0.02,,,0.02,WUHU21636XXSP,2013-02-22 15:30:00,
2013-02-22 07:31:00,40.8,39.7,29.86,SE,135,2.2,2.6,96,0.02,,,0.02,WUHU21636XXSP,2013-02-22 15:31:00,
2013-02-22 07:32:00,40.8,39.7,29.86,ESE,117,1.9,2.6,96,0.02,,,0.02,WUHU21636XXSP,2013-02-22 15:32:00,
2013-02-22 07:35:00,40.8,39.7,29.86,NNE,22,0.0,2.6,96,0.02,,,0.02,WUHU21636XXSP,2013-02-22 15:35:00,
2013-02-22 07:36:00,40.8,39.7,29.86,NNE,22,0.0,2.6,96,0.02,,,0.02,WUHU21636XXSP,2013-02-22 15:36:00,
2013-02-22 07:37:00,40.6,39.5,29.85,South,181,4.5,10.5,96,0.04,,,0.04,WUHU21636XXSP,2013-02-22 15:37:00,
2013-02-22 07:40:00,40.6,39.5,29.85,SSW,200,9.2,14.3,96,0.04,,,0.04,WUHU21636XXSP,2013-02-22 15:40:00,
2013-02-22 07:41:00,40.6,39.5,29.85,SSW,192,9.0,14.3,96,0.04,,,0.04,WUHU21636XXSP,2013-02-22 15:41:00,
2013-02-22 07:43:00,40.6,39.5,29.85,West,280,3.5,14.3,96,0.04,,,0.04,WUHU21636XXSP,2013-02-22 15:43:00,
2013-02-22 07:45:00,40.6,39.5,29.85,NE,45,0.0,14.3,96,0.04,,,0.04,WUHU21636XXSP,2013-02-22 15:45:00,
2013-02-22 07:46:00,40.6,39.5,29.85,West,270,0.0,14.3,96,0.04,,,0.04,WUHU21636XXSP,2013-02-22 15:46:00,
2013-02-22 07:48:00,40.6,39.5,29.85,West,270,0.0,14.3,96,0.04,,,0.04,WUHU21636XXSP,2013-02-22 15:48:00,
2013-02-22 07:50:00,40.6,39.5,29.85,SW,229,2.3,12.5,96,0.02,,,0.04,WUHU21636XXSP,2013-02-22 15:50:00,
2013-02-22 07:51:00,40.6,39.5,29.85,SW,225,1.7,12.5,96,0.02,,,0.04,WUHU21636XXSP,2013-02-22 15:51:00,
2013-02-22 07:53:00,40.6,39.5,29.85,SW,225,0.6,12.5,96,0.02,,,0.04,WUHU21636XXSP,2013-02-22 15:53:00,
2013-02-22 07:56:00,40.6,39.5,29.85,South,172,3.8,16.3,96,0.04,,,0.06,WUHU21636XXSP,2013-02-22 15:56:00,
2013-02-22 07:57:00,40.6,39.5,29.84,West,263,2.2,16.3,96,0.04,,,0.06,WUHU21636XXSP,2013-02-22 15:57:00,
2013-02-22 07:58:00,40.3,39.2,29.84,SW,218,3.3,16.3,96,0.04,,,0.06,WUHU21636XXSP,2013-02-22 15:58:00,
2013-02-22 08:01:00,40.6,39.5,29.84,SE,135,2.2,16.3,96,0.04,,,0.06,WUHU21636XXSP,2013-02-22 16:01:00,
2013-02-22 08:02:00,40.6,39.5,29.84,SE,135,2.2,16.3,96,0.04,,,0.06,WUHU21636XXSP,2013-02-22 16:02:00,
2013-02-22 08:03:00,40.6,39.5,29.84,SE,135,1.5,16.3,96,0.04,,,0.06,WUHU21636XXSP,2013-02-22 16:03:00,
2013-02-22 08:06:00,40.3,39.2,29.84,SSW,202,6.9,14.9,96,0.04,,,0.06,WUHU21636XXSP,2013-02-22 16:06:00,
2013-02-22 08:07:00,40.3,39.2,29.84,SSW,202,8.9,14.9,96,0.06,,,0.08,WUHU21636XXSP,2013-02-22 16:07:00,
2013-02-22 08:08:00,40.3,39.2,29.84,SSW,199,5.8,14.9,96,0.06,,,0.08,WUHU21636XXSP,2013-02-22 16:08:00,
2013-02-22 08:11:00,40.3,39.2,29.84,SSW,202,9.8,15.6,96,0.06,,,0.08,WUHU21636XXSP,2013-02-22 16:11:00,
2013-02-22 08:12:00,40.3,39.2,29.84,SSW,199,3.4,15.6,96,0.06,,,0.08,WUHU21636XXSP,2013-02-22 16:12:00,
2013-02-22 08:13:00,40.3,39.2,29.83,WSW,247,0.4,15.6,96,0.06,,,0.08,WUHU21636XXSP,2013-02-22 16:13:00,
2013-02-22 08:16:00,40.3,39.2,29.83,South,180,5.6,16.7,96,0.06,,,0.08,WUHU21636XXSP,2013-02-22 16:16:00,
2013-02-22 08:17:00,40.3,39.2,29.83,SSW,193,5.8,16.7,96,0.06,,,0.08,WUHU21636XXSP,2013-02-22 16:17:00,
2013-02-22 08:18:00,40.3,39.2,29.84,South,180,6.4,16.7,96,0.06,,,0.08,WUHU21636XXSP,2013-02-22 16:18:00,
2013-02-22 08:21:00,40.3,39.2,29.83,SSW,202,2.0,16.7,96,0.06,,,0.08,WUHU21636XXSP,2013-02-22 16:21:00,
2013-02-22 08:22:00,40.3,39.2,29.83,South,180,7.3,16.7,96,0.06,,,0.08,WUHU21636XXSP,2013-02-22 16:22:00,
2013-02-22 08:24:00,40.3,39.2,29.83,SSW,197,6.2,17.0,96,0.08,,,0.10,WUHU21636XXSP,2013-02-22 16:24:00,
2013-02-22 08:27:00,40.3,39.2,29.83,SE,135,0.8,17.0,96,0.08,,,0.10,WUHU21636XXSP,2013-02-22 16:27:00,
2013-02-22 08:29:00,40.3,39.2,29.83,SSW,202,5.8,17.0,96,0.08,,,0.10,WUHU21636XXSP,2013-02-22 16:29:00,
2013-02-22 08:32:00,40.3,39.2,29.83,SSW,192,4.4,17.0,96,0.08,,,0.10,WUHU21636XXSP,2013-02-22 16:32:00,
2013-02-22 08:33:00,40.3,39.2,29.83,SSE,168,2.8,15.8,96,0.08,,,0.10,WUHU21636XXSP,2013-02-22 16:33:00,
2013-02-22 08:34:00,40.3,39.2,29.82,SSE,157,2.4,15.8,96,0.08,,,0.10,WUHU21636XXSP,2013-02-22 16:34:00,
2013-02-22 08:37:00,40.1,39.0,29.81,WSW,246,2.5,6.7,96,0.08,,,0.12,WUHU21636XXSP,2013-02-22 16:37:00,
2013-02-22 08:38:00,40.1,39.0,29.81,NW,321,1.3,6.7,96,0.08,,,0.12,WUHU21636XXSP,2013-02-22 16:38:00,
2013-02-22 08:39:00,40.3,39.2,29.80,NNW,337,1.1,6.7,96,0.08,,,0.12,WUHU21636XXSP,2013-02-22 16:39:00,
2013-02-22 08:42:00,40.1,39.0,29.80,SSW,202,2.4,6.7,96,0.08,,,0.12,WUHU21636XXSP,2013-02-22 16:42:00,
2013-02-22 08:43:00,40.1,39.0,29.80,SSW,209,2.1,6.7,96,0.11,,,0.15,WUHU21636XXSP,2013-02-22 16:43:00,
2013-02-22 08:44:00,40.1,39.0,29.80,WSW,237,1.5,6.7,96,0.11,,,0.15,WUHU21636XXSP,2013-02-22 16:44:00,
2013-02-22 08:47:00,39.9,38.8,29.80,South,171,4.0,12.9,96,0.13,,,0.17,WUHU21636XXSP,2013-02-22 16:47:00,
2013-02-22 08:48:00,39.9,38.8,29.80,SE,128,4.0,12.9,96,0.13,,,0.17,WUHU21636XXSP,2013-02-22 16:48:00,
2013-02-22 08:49:00,39.9,38.8,29.80,SE,140,4.8,18.5,96,0.13,,,0.17,WUHU21636XXSP,2013-02-22 16:49:00,
2013-02-22 08:52:00,39.9,38.8,29.79,SSE,157,12.3,30.4,96,0.13,,,0.17,WUHU21636XXSP,2013-02-22 16:52:00,
2013-02-22 08:53:00,39.9,38.8,29.79,South,179,10.0,30.4,96,0.15,,,0.19,WUHU21636XXSP,2013-02-22 16:53:00,
2013-02-22 08:54:00,39.9,38.8,29.79,SE,135,7.1,30.4,96,0.15,,,0.19,WUHU21636XXSP,2013-02-22 16:54:00,
2013-02-22 08:57:00,39.7,38.6,29.79,SSW,202,7.1,30.4,96,0.13,,,0.19,WUHU21636XXSP,2013-02-22 16:57:00,
2013-02-22 08:58:00,39.7,38.6,29.79,South,177,7.0,30.4,96,0.13,,,0.19,WUHU21636XXSP,2013-02-22 16:58:00,
2013-02-22 08:59:00,39.7,38.6,29.79,SE,135,6.7,30.4,96,0.13,,,0.19,WUHU21636XXSP,2013-02-22 16:59:00,
2013-02-22 09:02:00,39.6,38.5,29.79,South,181,7.2,22.3,96,0.13,,,0.19,WUHU21636XXSP,2013-02-22 17:02:00,
2013-02-22 09:03:00,39.6,38.5,29.79,SW,230,7.4,22.3,96,0.13,,,0.19,WUHU21636XXSP,2013-02-22 17:03:00,
2013-02-22 09:04:00,39.6,38.5,29.79,South,180,8.5,22.3,96,0.15,,,0.21,WUHU21636XXSP,2013-02-22 17:04:00,
2013-02-22 09:07:00,39.7,38.6,29.80,SSE,151,7.1,22.3,96,0.13,,,0.21,WUHU21636XXSP,2013-02-22 17:07:00,
2013-02-22 09:08:00,39.7,38.6,29.80,South,180,6.9,22.3,96,0.13,,,0.21,WUHU21636XXSP,2013-02-22 17:08:00,
2013-02-22 09:09:00,39.7,38.6,29.80,South,180,6.9,22.3,96,0.13,,,0.21,WUHU21636XXSP,2013-02-22 17:09:00,
2013-02-22 09:10:00,39.7,38.6,29.80,SW,225,10.0,28.6,96,0.13,,,0.21,WUHU21636XXSP,2013-02-22 17:10:00,
2013-02-22 09:12:00,39.6,38.5,29.80,SSE,152,4.3,28.6,96,0.13,,,0.21,WUHU21636XXSP,2013-02-22 17:12:00,
2013-02-22 09:14:00,39.6,38.5,29.80,WSW,247,5.1,28.6,96,0.15,,,0.23,WUHU21636XXSP,2013-02-22 17:14:00,
2013-02-22 09:15:00,39.6,38.5,29.80,WSW,247,5.1,28.6,96,0.15,,,0.23,WUHU21636XXSP,2013-02-22 17:15:00,
2013-02-22 09:17:00,39.7,38.6,29.81,WSW,238,5.4,28.6,96,0.15,,,0.23,WUHU21636XXSP,2013-02-22 17:17:00,
2013-02-22 09:19:00,39.7,38.6,29.81,WSW,253,3.7,28.6,96,0.15,,,0.23,WUHU21636XXSP,2013-02-22 17:19:00,
2013-02-22 09:20:00,39.6,38.7,29.81,SSW,202,14.5,19.2,97,0.15,,,0.23,WUHU21636XXSP,2013-02-22 17:20:00,
2013-02-22 09:22:00,39.6,38.7,29.81,ESE,122,3.4,15.8,97,0.13,,,0.23,WUHU21636XXSP,2013-02-22 17:22:00,
2013-02-22 09:24:00,39.7,38.8,29.81,SW,225,5.3,15.8,97,0.13,,,0.23,WUHU21636XXSP,2013-02-22 17:24:00,
2013-02-22 09:25:00,39.6,38.7,29.81,WSW,238,4.9,15.8,97,0.15,,,0.25,WUHU21636XXSP,2013-02-22 17:25:00,
2013-02-22 09:28:00,39.7,38.8,29.81,South,184,4.8,15.8,97,0.15,,,0.25,WUHU21636XXSP,2013-02-22 17:28:00,
2013-02-22 09:29:00,39.7,38.8,29.80,ENE,67,2.1,15.8,97,0.15,,,0.25,WUHU21636XXSP,2013-02-22 17:29:00,
2013-02-22 09:30:00,39.7,38.8,29.80,SE,135,9.8,14.5,97,0.15,,,0.25,WUHU21636XXSP,2013-02-22 17:30:00,
2013-02-22 09:33:00,39.7,38.8,29.80,SSW,211,2.4,16.7,97,0.15,,,0.25,WUHU21636XXSP,2013-02-22 17:33:00,
2013-02-22 09:34:00,39.6,38.7,29.80,South,180,4.2,16.7,97,0.15,,,0.25,WUHU21636XXSP,2013-02-22 17:34:00,
2013-02-22 09:36:00,39.6,38.5,29.80,South,182,4.0,16.7,96,0.15,,,0.25,WUHU21636XXSP,2013-02-22 17:36:00,
2013-02-22 09:38:00,39.6,38.5,29.80,SW,225,7.8,16.7,96,0.13,,,0.25,WUHU21636XXSP,2013-02-22 17:38:00,
2013-02-22 09:39:00,39.6,38.7,29.80,SSW,206,4.8,16.7,97,0.13,,,0.25,WUHU21636XXSP,2013-02-22 17:39:00,
2013-02-22 09:40:00,39.4,38.5,29.80,South,180,7.1,16.7,97,0.13,,,0.25,WUHU21636XXSP,2013-02-22 17:40:00,
2013-02-22 09:41:00,39.6,38.5,29.80,South,180,7.6,14.0,96,0.13,,,0.25,WUHU21636XXSP,2013-02-22 17:41:00,
2013-02-22 09:43:00,39.6,38.5,29.80,South,180,8.9,14.0,96,0.10,,,0.25,WUHU21636XXSP,2013-02-22 17:43:00,
2013-02-22 09:44:00,39.4,38.3,29.80,SSW,199,9.9,19.4,96,0.10,,,0.25,WUHU21636XXSP,2013-02-22 17:44:00,
2013-02-22 09:45:00,39.4,38.3,29.80,South,191,10.0,20.1,96,0.10,,,0.25,WUHU21636XXSP,2013-02-22 17:45:00,
2013-02-22 09:46:00,39.4,38.3,29.80,SE,135,7.6,20.1,96,0.08,,,0.25,WUHU21636XXSP,2013-02-22 17:46:00,
2013-02-22 09:48:00,39.4,38.3,29.80,South,189,4.2,20.1,96,0.08,,,0.25,WUHU21636XXSP,2013-02-22 17:48:00,
2013-02-22 09:49:00,39.4,38.3,29.80,SE,135,3.5,20.1,96,0.08,,,0.25,WUHU21636XXSP,2013-02-22 17:49:00,
2013-02-22 09:50:00,39.4,38.3,29.80,SE,135,3.5,20.1,96,0.08,,,0.25,WUHU21636XXSP,2013-02-22 17:50:00,
2013-02-22 09:52:00,39.4,38.3,29.80,SE,135,11.8,20.1,96,0.08,,,0.25,WUHU21636XXSP,2013-02-22 17:52:00,
2013-02-22 09:53:00,39.4,38.3,29.79,SSE,168,7.7,20.1,96,0.08,,,0.27,WUHU21636XXSP,2013-02-22 17:53:00,
2013-02-22 09:54:00,39.2,38.1,29.79,South,169,4.5,16.3,96,0.08,,,0.27,WUHU21636XXSP,2013-02-22 17:54:00,
2013-02-22 09:55:00,39.4,38.3,29.79,SSE,163,3.8,12.9,96,0.08,,,0.27,WUHU21636XXSP,2013-02-22 17:55:00,
2013-02-22 09:57:00,39.4,38.3,29.79,SSW,202,9.6,12.7,96,0.08,,,0.27,WUHU21636XXSP,2013-02-22 17:57:00,
2013-02-22 09:59:00,39.2,38.1,29.79,SSE,157,6.9,15.4,96,0.08,,,0.27,WUHU21636XXSP,2013-02-22 17:59:00,
2013-02-22 10:00:00,39.0,37.9,29.80,West,270,7.6,20.8,96,0.08,,,0.27,WUHU21636XXSP,2013-02-22 18:00:00,
2013-02-22 10:02:00,39.2,38.1,29.79,SSW,202,5.5,20.8,96,0.10,,,0.29,WUHU21636XXSP,2013-02-22 18:02:00,
2013-02-22 10:04:00,39.2,38.1,29.79,South,176,7.1,20.8,96,0.08,,,0.29,WUHU21636XXSP,2013-02-22 18:04:00,
2013-02-22 10:05:00,39.2,38.1,29.79,South,171,7.1,20.8,96,0.08,,,0.29,WUHU21636XXSP,2013-02-22 18:05:00,
2013-02-22 10:07:00,39.2,38.3,29.80,SSW,202,3.1,20.8,97,0.08,,,0.29,WUHU21636XXSP,2013-02-22 18:07:00,
2013-02-22 10:09:00,39.4,38.5,29.79,SSE,157,3.8,20.8,97,0.10,,,0.31,WUHU21636XXSP,2013-02-22 18:09:00,
2013-02-22 10:10:00,39.2,38.3,29.80,SSW,202,6.2,17.2,97,0.10,,,0.31,WUHU21636XXSP,2013-02-22 18:10:00,
2013-02-22 10:12:00,39.0,37.9,29.80,SE,138,7.6,26.1,96,0.10,,,0.31,WUHU21636XXSP,2013-02-22 18:12:00,
2013-02-22 10:14:00,39.0,37.9,29.80,SE,135,7.8,26.1,96,0.08,,,0.31,WUHU21636XXSP,2013-02-22 18:14:00,
2013-02-22 10:15:00,39.0,37.9,29.80,SW,225,6.2,26.1,96,0.08,,,0.31,WUHU21636XXSP,2013-02-22 18:15:00,
2013-02-22 10:17:00,39.0,37.9,29.80,SW,236,2.1,26.1,96,0.08,,,0.31,WUHU21636XXSP,2013-02-22 18:17:00,
2013-02-22 10:19:00,38.8,37.7,29.80,South,180,3.8,26.1,96,0.08,,,0.31,WUHU21636XXSP,2013-02-22 18:19:00,
2013-02-22 10:20:00,38.8,37.7,29.81,South,177,3.9,17.2,96,0.08,,,0.31,WUHU21636XXSP,2013-02-22 18:20:00,
2013-02-22 10:21:00,38.8,37.7,29.81,SSE,157,7.6,14.5,96,0.08,,,0.31,WUHU21636XXSP,2013-02-22 18:21:00,
2013-02-22 10:22:00,38.8,37.7,29.80,South,179,4.8,14.5,96,0.08,,,0.31,WUHU21636XXSP,2013-02-22 18:22:00,
2013-02-22 10:24:00,38.8,37.7,29.80,East,90,4.0,11.1,96,0.06,,,0.31,WUHU21636XXSP,2013-02-22 18:24:00,
2013-02-22 10:25:00,38.8,37.7,29.80,SE,128,3.9,10.9,96,0.08,,,0.33,WUHU21636XXSP,2013-02-22 18:25:00,
2013-02-22 10:26:00,38.8,37.7,29.80,ESE,123,3.7,10.9,96,0.08,,,0.33,WUHU21636XXSP,2013-02-22 18:26:00,
2013-02-22 10:27:00,38.8,37.7,29.79,NE,45,1.1,10.9,96,0.08,,,0.33,WUHU21636XXSP,2013-02-22 18:27:00,
2013-02-22 10:29:00,38.8,37.7,29.79,South,175,6.0,11.8,96,0.08,,,0.33,WUHU21636XXSP,2013-02-22 18:29:00,
2013-02-22 10:30:00,38.8,37.7,29.79,SSW,192,5.4,14.3,96,0.10,,,0.35,WUHU21636XXSP,2013-02-22 18:30:00,
2013-02-22 10:31:00,38.8,37.7,29.79,South,188,4.7,14.3,96,0.10,,,0.35,WUHU21636XXSP,2013-02-22 18:31:00,
2013-02-22 10:32:00,38.8,37.7,29.79,SE,140,2.3,14.3,96,0.10,,,0.35,WUHU21636XXSP,2013-02-22 18:32:00,
2013-02-22 10:34:00,38.8,37.7,29.78,SSW,202,0.4,14.3,96,0.10,,,0.35,WUHU21636XXSP,2013-02-22 18:34:00,
2013-02-22 10:36:00,38.8,37.7,29.79,South,180,2.9,14.3,96,0.10,,,0.35,WUHU21636XXSP,2013-02-22 18:36:00,
2013-02-22 10:37:00,38.8,37.7,29.79,South,180,2.9,14.3,96,0.10,,,0.35,WUHU21636XXSP,2013-02-22 18:37:00,
2013-02-22 10:39:00,38.8,37.7,29.79,SW,219,1.3,11.8,96,0.10,,,0.35,WUHU21636XXSP,2013-02-22 18:39:00,
2013-02-22 10:41:00,38.8,37.7,29.79,West,270,0.8,2.9,96,0.10,,,0.35,WUHU21636XXSP,2013-02-22 18:41:00,
2013-02-22 10:43:00,39.0,37.9,29.79,SSW,202,0.0,2.9,96,0.10,,,0.35,WUHU21636XXSP,2013-02-22 18:43:00,
2013-02-22 10:45:00,39.0,37.9,29.79,SSE,157,0.0,2.9,96,0.12,,,0.37,WUHU21636XXSP,2013-02-22 18:45:00,
2013-02-22 10:46:00,39.0,37.9,29.79,SSE,157,0.0,2.9,96,0.12,,,0.37,WUHU21636XXSP,2013-02-22 18:46:00,
2013-02-22 10:48:00,39.0,37.9,29.79,South,180,11.1,14.7,96,0.12,,,0.37,WUHU21636XXSP,2013-02-22 18:48:00,
2013-02-22 10:50:00,38.8,37.7,29.79,SSW,202,10.0,22.8,96,0.12,,,0.37,WUHU21636XXSP,2013-02-22 18:50:00,
2013-02-22 10:51:00,38.8,37.7,29.79,WSW,250,9.5,22.8,96,0.12,,,0.37,WUHU21636XXSP,2013-02-22 18:51:00,
2013-02-22 10:53:00,39.0,37.9,29.79,WNW,295,3.8,22.8,96,0.12,,,0.37,WUHU21636XXSP,2013-02-22 18:53:00,
2013-02-22 10:55:00,39.0,37.9,29.79,SSE,162,0.7,22.8,96,0.10,,,0.37,WUHU21636XXSP,2013-02-22 18:55:00,
2013-02-22 10:56:00,39.2,38.3,29.80,WSW,247,8.5,22.8,97,0.10,,,0.37,WUHU21636XXSP,2013-02-22 18:56:00,
2013-02-22 10:57:00,39.2,38.3,29.80,WSW,247,8.5,22.8,97,0.10,,,0.37,WUHU21636XXSP,2013-02-22 18:57:00,
2013-02-22 10:58:00,39.2,38.3,29.79,SSW,192,6.8,22.8,97,0.10,,,0.37,WUHU21636XXSP,2013-02-22 18:58:00,
2013-02-22 11:00:00,39.0,37.9,29.79,South,188,6.1,16.3,96,0.10,,,0.39,WUHU21636XXSP,2013-02-22 19:00:00,
2013-02-22 11:02:00,39.0,37.9,29.79,South,174,5.6,16.3,96,0.10,,,0.39,WUHU21636XXSP,2013-02-22 19:02:00,
2013-02-22 11:03:00,39.0,37.9,29.79,South,186,3.9,16.3,96,0.10,,,0.39,WUHU21636XXSP,2013-02-22 19:03:00,
2013-02-22 11:06:00,39.0,37.9,29.78,South,180,4.2,16.3,96,0.10,,,0.39,WUHU21636XXSP,2013-02-22 19:06:00,
2013-02-22 11:07:00,39.0,37.9,29.78,South,180,4.2,16.3,96,0.10,,,0.39,WUHU21636XXSP,2013-02-22 19:07:00,
2013-02-22 11:08:00,39.2,38.3,29.78,ESE,112,9.8,12.9,97,0.10,,,0.39,WUHU21636XXSP,2013-02-22 19:08:00,
2013-02-22 11:11:00,39.2,38.1,29.77,SSW,202,8.0,19.2,96,0.08,,,0.39,WUHU21636XXSP,2013-02-22 19:11:00,
2013-02-22 11:12:00,39.2,38.1,29.77,SW,218,6.7,19.2,96,0.08,,,0.39,WUHU21636XXSP,2013-02-22 19:12:00,
2013-02-22 11:13:00,39.2,38.1,29.76,SSW,198,6.8,21.6,96,0.10,,,0.41,WUHU21636XXSP,2013-02-22 19:13:00,
2013-02-22 11:16:00,39.2,38.1,29.75,SE,135,0.0,21.6,96,0.10,,,0.41,WUHU21636XXSP,2013-02-22 19:16:00,
2013-02-22 11:17:00,39.2,38.1,29.75,South,186,9.6,21.6,96,0.10,,,0.41,WUHU21636XXSP,2013-02-22 19:17:00,
2013-02-22 11:18:00,39.2,38.1,29.75,SSW,199,8.6,21.6,96,0.10,,,0.41,WUHU21636XXSP,2013-02-22 19:18:00,
2013-02-22 11:21:00,39.4,38.3,29.74,South,180,12.7,22.3,96,0.10,,,0.41,WUHU21636XXSP,2013-02-22 19:21:00,
2013-02-22 11:22:00,39.2,38.1,29.74,South,187,10.4,23.4,96,0.10,,,0.41,WUHU21636XXSP,2013-02-22 19:22:00,
2013-02-22 11:24:00,39.2,38.1,29.74,South,180,3.7,23.4,96,0.10,,,0.41,WUHU21636XXSP,2013-02-22 19:24:00,
2013-02-22 11:26:00,39.4,38.3,29.74,South,173,7.1,26.3,96,0.08,,,0.41,WUHU21636XXSP,2013-02-22 19:26:00,
2013-02-22 11:28:00,39.4,38.3,29.75,South,180,6.2,26.3,96,0.08,,,0.41,WUHU21636XXSP,2013-02-22 19:28:00,
2013-02-22 11:29:00,39.6,38.5,29.75,SSE,166,6.5,26.3,96,0.08,,,0.41,WUHU21636XXSP,2013-02-22 19:29:00,
2013-02-22 11:32:00,39.6,38.5,29.75,SSW,202,0.0,26.3,96,0.06,,,0.41,WUHU21636XXSP,2013-02-22 19:32:00,
2013-02-22 11:33:00,39.6,38.5,29.75,SSE,157,11.1,26.3,96,0.06,,,0.41,WUHU21636XXSP,2013-02-22 19:33:00,
2013-02-22 11:34:00,39.6,38.5,29.75,SSE,159,9.9,26.3,96,0.06,,,0.41,WUHU21636XXSP,2013-02-22 19:34:00,
2013-02-22 11:37:00,39.6,38.5,29.74,SE,146,6.3,25.0,96,0.06,,,0.41,WUHU21636XXSP,2013-02-22 19:37:00,
2013-02-22 11:38:00,39.6,38.5,29.74,South,180,8.9,25.0,96,0.06,,,0.41,WUHU21636XXSP,2013-02-22 19:38:00,
2013-02-22 11:39:00,39.6,38.5,29.74,South,178,6.7,25.0,96,0.06,,,0.41,WUHU21636XXSP,2013-02-22 19:39:00,
2013-02-22 11:42:00,39.6,38.5,29.74,South,172,3.7,25.0,96,0.08,,,0.43,WUHU21636XXSP,2013-02-22 19:42:00,
2013-02-22 11:43:00,39.6,38.5,29.74,SSE,157,3.5,21.0,96,0.08,,,0.43,WUHU21636XXSP,2013-02-22 19:43:00,
2013-02-22 11:44:00,39.7,38.8,29.73,SSE,157,7.3,21.0,97,0.08,,,0.43,WUHU21636XXSP,2013-02-22 19:44:00,
2013-02-22 11:47:00,39.7,38.6,29.75,SSE,157,5.5,20.8,96,0.06,,,0.43,WUHU21636XXSP,2013-02-22 19:47:00,
2013-02-22 11:48:00,39.7,38.6,29.75,South,186,4.5,20.8,96,0.06,,,0.43,WUHU21636XXSP,2013-02-22 19:48:00,
2013-02-22 11:49:00,39.9,38.8,29.75,SSE,157,10.0,20.8,96,0.06,,,0.43,WUHU21636XXSP,2013-02-22 19:49:00,
2013-02-22 11:52:00,39.9,38.8,29.75,South,180,3.8,20.8,96,0.06,,,0.43,WUHU21636XXSP,2013-02-22 19:52:00,
2013-02-22 11:53:00,39.9,38.8,29.75,South,180,3.8,20.8,96,0.06,,,0.43,WUHU21636XXSP,2013-02-22 19:53:00,
2013-02-22 11:54:00,39.9,38.8,29.75,South,180,3.8,20.8,96,0.06,,,0.43,WUHU21636XXSP,2013-02-22 19:54:00,
2013-02-22 11:58:00,39.9,38.8,29.74,South,178,6.3,17.8,96,0.04,,,0.43,WUHU21636XXSP,2013-02-22 19:58:00,
2013-02-22 11:59:00,39.9,38.8,29.74,SSE,154,5.1,14.7,96,0.04,,,0.43,WUHU21636XXSP,2013-02-22 19:59:00,
2013-02-22 12:03:00,39.9,38.8,29.74,SSE,152,4.8,14.7,96,0.04,,,0.43,WUHU21636XXSP,2013-02-22 20:03:00,
2013-02-22 12:04:00,39.9,38.8,29.74,SE,144,3.0,14.7,96,0.04,,,0.43,WUHU21636XXSP,2013-02-22 20:04:00,
2013-02-22 12:09:00,39.9,39.0,29.75,East,90,1.5,12.5,97,0.04,,,0.43,WUHU21636XXSP,2013-02-22 20:09:00,
2013-02-22 12:10:00,39.9,39.0,29.75,SSW,202,3.3,12.5,97,0.04,,,0.43,WUHU21636XXSP,2013-02-22 20:10:00,
2013-02-22 12:14:00,40.1,39.2,29.74,SSE,157,4.9,4.9,97,0.02,,,0.43,WUHU21636XXSP,2013-02-22 20:14:00,
2013-02-22 12:15:00,39.9,39.0,29.74,South,186,3.7,4.9,97,0.02,,,0.43,WUHU21636XXSP,2013-02-22 20:15:00,
2013-02-22 12:19:00,40.1,39.2,29.74,South,180,3.1,4.9,97,0.02,,,0.43,WUHU21636XXSP,2013-02-22 20:19:00,
2013-02-22 12:20:00,40.1,39.2,29.74,South,180,3.1,4.9,97,0.02,,,0.43,WUHU21636XXSP,2013-02-22 20:20:00,
2013-02-22 12:24:00,40.1,39.2,29.74,South,174,1.6,4.4,97,0.02,,,0.43,WUHU21636XXSP,2013-02-22 20:24:00,
2013-02-22 12:25:00,40.1,39.2,29.74,South,180,9.8,12.3,97,0.02,,,0.43,WUHU21636XXSP,2013-02-22 20:25:00,
2013-02-22 12:29:00,40.1,39.2,29.73,South,180,8.9,12.3,97,0.02,,,0.43,WUHU21636XXSP,2013-02-22 20:29:00,
2013-02-22 12:30:00,40.1,39.2,29.73,SW,225,7.8,15.4,97,0.02,,,0.43,WUHU21636XXSP,2013-02-22 20:30:00,
2013-02-22 12:34:00,40.1,39.2,29.73,SSW,202,6.7,16.5,97,0.02,,,0.43,WUHU21636XXSP,2013-02-22 20:34:00,
2013-02-22 12:35:00,40.3,39.4,29.72,SW,219,4.4,16.5,97,0.02,,,0.43,WUHU21636XXSP,2013-02-22 20:35:00,
2013-02-22 12:39:00,40.3,39.4,29.72,SSE,157,7.8,16.5,97,0.02,,,0.43,WUHU21636XXSP,2013-02-22 20:39:00,
2013-02-22 12:40:00,40.3,39.4,29.72,SSE,167,4.1,16.5,97,0.00,,,0.43,WUHU21636XXSP,2013-02-22 20:40:00,
2013-02-22 12:44:00,40.3,39.4,29.72,South,180,4.2,10.5,97,0.00,,,0.43,WUHU21636XXSP,2013-02-22 20:44:00,
2013-02-22 12:45:00,40.3,39.4,29.72,South,180,4.2,10.5,97,0.00,,,0.43,WUHU21636XXSP,2013-02-22 20:45:00,
2013-02-22 12:49:00,40.3,39.4,29.71,SSW,202,4.0,8.0,97,0.00,,,0.43,WUHU21636XXSP,2013-02-22 20:49:00,
2013-02-22 12:50:00,40.3,39.4,29.71,SSW,202,4.0,4.2,97,0.00,,,0.43,WUHU21636XXSP,2013-02-22 20:50:00,
2013-02-22 12:55:00,40.6,39.7,29.71,South,187,1.9,13.4,97,0.00,,,0.43,WUHU21636XXSP,2013-02-22 20:55:00,
2013-02-22 12:56:00,40.6,39.7,29.71,SE,135,3.5,13.4,97,0.00,,,0.43,WUHU21636XXSP,2013-02-22 20:56:00,
2013-02-22 13:00:00,40.6,39.7,29.71,SSE,157,0.0,13.4,97,0.00,,,0.43,WUHU21636XXSP,2013-02-22 21:00:00,
2013-02-22 13:01:00,40.6,39.7,29.71,SSE,157,0.0,13.4,97,0.00,,,0.43,WUHU21636XXSP,2013-02-22 21:01:00,
2013-02-22 13:05:00,40.8,39.9,29.71,SSE,159,5.7,14.3,97,0.00,,,0.43,WUHU21636XXSP,2013-02-22 21:05:00,
2013-02-22 13:06:00,40.8,39.9,29.71,SSE,155,4.1,14.3,97,0.00,,,0.43,WUHU21636XXSP,2013-02-22 21:06:00,
2013-02-22 13:07:00,40.8,39.9,29.70,SSE,152,3.1,14.3,97,0.00,,,0.43,WUHU21636XXSP,2013-02-22 21:07:00,
2013-02-22 13:10:00,40.8,39.9,29.70,SSE,148,4.0,14.3,97,0.02,,,0.45,WUHU21636XXSP,2013-02-22 21:10:00,
2013-02-22 13:11:00,41.2,40.3,29.70,SSE,157,11.6,14.3,97,0.02,,,0.45,WUHU21636XXSP,2013-02-22 21:11:00,
2013-02-22 13:12:00,41.2,40.3,29.70,SW,225,6.7,14.9,97,0.02,,,0.45,WUHU21636XXSP,2013-02-22 21:12:00,
2013-02-22 13:15:00,41.2,40.3,29.69,South,190,6.9,23.0,97,0.02,,,0.45,WUHU21636XXSP,2013-02-22 21:15:00,
2013-02-22 13:16:00,41.2,40.3,29.69,WSW,239,3.0,23.0,97,0.02,,,0.45,WUHU21636XXSP,2013-02-22 21:16:00,
2013-02-22 13:17:00,41.4,40.5,29.69,SSE,157,4.9,23.0,97,0.02,,,0.45,WUHU21636XXSP,2013-02-22 21:17:00,
2013-02-22 13:20:00,41.4,40.5,29.69,ESE,112,4.6,23.0,97,0.02,,,0.45,WUHU21636XXSP,2013-02-22 21:20:00,
2013-02-22 13:21:00,41.4,40.5,29.69,ESE,112,4.6,23.0,97,0.02,,,0.45,WUHU21636XXSP,2013-02-22 21:21:00,
2013-02-22 13:22:00,41.5,40.6,29.69,ESE,117,4.5,23.0,97,0.02,,,0.45,WUHU21636XXSP,2013-02-22 21:22:00,
2013-02-22 13:26:00,41.7,40.8,29.68,SSW,211,3.0,6.4,97,0.02,,,0.45,WUHU21636XXSP,2013-02-22 21:26:00,
2013-02-22 13:27:00,41.7,40.8,29.68,SSW,202,2.9,6.4,97,0.02,,,0.45,WUHU21636XXSP,2013-02-22 21:27:00,
2013-02-22 13:31:00,41.7,40.8,29.68,SE,135,1.5,4.6,97,0.02,,,0.45,WUHU21636XXSP,2013-02-22 21:31:00,
2013-02-22 13:32:00,41.7,40.8,29.68,SE,135,1.5,3.5,97,0.02,,,0.45,WUHU21636XXSP,2013-02-22 21:32:00,
2013-02-22 13:36:00,41.7,40.8,29.68,SSW,202,0.0,2.9,97,0.02,,,0.45,WUHU21636XXSP,2013-02-22 21:36:00,
2013-02-22 13:37:00,41.7,40.8,29.67,South,180,0.0,1.5,97,0.02,,,0.45,WUHU21636XXSP,2013-02-22 21:37:00,
2013-02-22 13:41:00,41.7,40.8,29.67,SSW,202,0.0,0.0,97,0.02,,,0.45,WUHU21636XXSP,2013-02-22 21:41:00,
2013-02-22 13:42:00,41.7,40.8,29.67,SE,135,4.6,7.1,97,0.02,,,0.45,WUHU21636XXSP,2013-02-22 21:42:00,
2013-02-22 13:43:00,41.7,40.8,29.67,South,180,9.6,15.8,97,0.02,,,0.45,WUHU21636XXSP,2013-02-22 21:43:00,
2013-02-22 13:46:00,41.7,40.8,29.67,SSW,205,4.3,16.1,97,0.02,,,0.45,WUHU21636XXSP,2013-02-22 21:46:00,
2013-02-22 13:47:00,41.7,40.8,29.67,SE,135,15.6,19.0,97,0.02,,,0.45,WUHU21636XXSP,2013-02-22 21:47:00,
2013-02-22 13:48:00,41.7,40.8,29.67,SE,143,6.7,19.0,97,0.02,,,0.45,WUHU21636XXSP,2013-02-22 21:48:00,
2013-02-22 13:51:00,41.7,40.8,29.68,NW,314,5.2,19.0,97,0.02,,,0.45,WUHU21636XXSP,2013-02-22 21:51:00,
2013-02-22 13:53:00,41.7,40.8,29.68,SSE,157,3.3,19.0,97,0.02,,,0.45,WUHU21636XXSP,2013-02-22 21:53:00,
2013-02-22 13:54:00,41.7,40.8,29.68,SSE,157,3.3,19.0,97,0.02,,,0.45,WUHU21636XXSP,2013-02-22 21:54:00,
2013-02-22 13:56:00,42.1,41.2,29.68,South,171,6.8,19.0,97,0.02,,,0.45,WUHU21636XXSP,2013-02-22 21:56:00,
2013-02-22 13:58:00,42.1,41.2,29.68,SSE,164,3.0,15.4,97,0.02,,,0.45,WUHU21636XXSP,2013-02-22 21:58:00,
2013-02-22 13:59:00,42.3,41.4,29.68,SSE,157,2.9,15.4,97,0.02,,,0.45,WUHU21636XXSP,2013-02-22 21:59:00,
2013-02-22 14:02:00,42.4,41.5,29.68,East,90,4.2,15.4,97,0.02,,,0.45,WUHU21636XXSP,2013-02-22 22:02:00,
2013-02-22 14:03:00,42.4,41.5,29.68,SSE,157,7.3,15.4,97,0.02,,,0.45,WUHU21636XXSP,2013-02-22 22:03:00,
2013-02-22 14:04:00,42.4,41.5,29.68,SE,131,5.1,15.4,97,0.02,,,0.45,WUHU21636XXSP,2013-02-22 22:04:00,
2013-02-22 14:07:00,42.6,41.7,29.67,SSE,157,2.4,12.0,97,0.02,,,0.45,WUHU21636XXSP,2013-02-22 22:07:00,
2013-02-22 14:08:00,42.6,41.7,29.67,SSE,157,2.4,12.0,97,0.02,,,0.45,WUHU21636XXSP,2013-02-22 22:08:00,
2013-02-22 14:09:00,42.6,41.7,29.67,SSE,156,2.3,12.0,97,0.00,,,0.45,WUHU21636XXSP,2013-02-22 22:09:00,
2013-02-22 14:12:00,42.6,41.7,29.68,South,180,10.5,14.5,97,0.00,,,0.45,WUHU21636XXSP,2013-02-22 22:12:00,
2013-02-22 14:14:00,42.6,41.4,29.68,South,174,8.7,16.7,96,0.00,,,0.45,WUHU21636XXSP,2013-02-22 22:14:00,
2013-02-22 14:17:00,42.6,41.4,29.68,SSW,193,5.8,16.7,96,0.00,,,0.45,WUHU21636XXSP,2013-02-22 22:17:00,
2013-02-22 14:19:00,42.6,41.4,29.67,South,183,6.0,16.7,96,0.00,,,0.45,WUHU21636XXSP,2013-02-22 22:19:00,
2013-02-22 14:22:00,42.8,41.6,29.67,SSW,202,5.3,16.7,96,0.00,,,0.45,WUHU21636XXSP,2013-02-22 22:22:00,
2013-02-22 14:23:00,42.8,41.6,29.67,SSW,202,5.1,15.6,96,0.00,,,0.45,WUHU21636XXSP,2013-02-22 22:23:00,
2013-02-22 14:24:00,42.8,41.6,29.67,South,188,4.4,15.6,96,0.00,,,0.45,WUHU21636XXSP,2013-02-22 22:24:00,
2013-02-22 14:27:00,42.6,41.4,29.67,SSE,163,3.4,15.2,96,0.00,,,0.45,WUHU21636XXSP,2013-02-22 22:27:00,
2013-02-22 14:28:00,43.0,41.8,29.67,SSE,157,4.4,15.2,96,0.00,,,0.45,WUHU21636XXSP,2013-02-22 22:28:00,
2013-02-22 14:29:00,43.0,41.8,29.67,SSE,157,4.4,15.2,96,0.00,,,0.45,WUHU21636XXSP,2013-02-22 22:29:00,
2013-02-22 14:32:00,43.0,41.8,29.67,SSW,210,2.8,15.2,96,0.00,,,0.45,WUHU21636XXSP,2013-02-22 22:32:00,
2013-02-22 14:33:00,43.0,41.8,29.67,SSW,202,2.3,15.2,96,0.00,,,0.45,WUHU21636XXSP,2013-02-22 22:33:00,
2013-02-22 14:34:00,43.0,41.8,29.67,SSW,210,1.7,15.2,96,0.00,,,0.45,WUHU21636XXSP,2013-02-22 22:34:00,
2013-02-22 14:38:00,43.0,41.8,29.67,SSE,161,6.4,14.3,96,0.00,,,0.45,WUHU21636XXSP,2013-02-22 22:38:00,
2013-02-22 14:39:00,43.0,41.8,29.67,SW,225,3.5,14.3,96,0.00,,,0.45,WUHU21636XXSP,2013-02-22 22:39:00,
2013-02-22 14:43:00,43.3,42.1,29.67,SSE,158,5.5,17.2,96,0.00,,,0.45,WUHU21636XXSP,2013-02-22 22:43:00,
2013-02-22 14:44:00,43.2,42.0,29.67,South,173,3.6,17.2,96,0.00,,,0.45,WUHU21636XXSP,2013-02-22 22:44:00,
2013-02-22 14:48:00,43.3,42.1,29.67,South,179,3.3,17.2,96,0.00,,,0.45,WUHU21636XXSP,2013-02-22 22:48:00,
2013-02-22 14:49:00,43.5,42.3,29.67,South,180,3.3,17.2,96,0.00,,,0.45,WUHU21636XXSP,2013-02-22 22:49:00,
2013-02-22 14:53:00,43.5,42.3,29.67,SE,135,3.1,14.5,96,0.00,,,0.45,WUHU21636XXSP,2013-02-22 22:53:00,
2013-02-22 14:54:00,43.5,42.3,29.67,SE,135,3.8,14.5,96,0.00,,,0.45,WUHU21636XXSP,2013-02-22 22:54:00,
2013-02-22 14:55:00,43.5,42.3,29.67,SE,135,3.8,14.5,96,0.00,,,0.45,WUHU21636XXSP,2013-02-22 22:55:00,
2013-02-22 14:58:00,43.9,42.7,29.67,South,180,4.9,8.9,96,0.00,,,0.45,WUHU21636XXSP,2013-02-22 22:58:00,
2013-02-22 14:59:00,43.9,42.7,29.67,South,180,4.6,8.9,96,0.00,,,0.45,WUHU21636XXSP,2013-02-22 22:59:00,
2013-02-22 15:00:00,43.9,42.7,29.67,SSE,162,4.1,8.9,96,0.00,,,0.45,WUHU21636XXSP,2013-02-22 23:00:00,
2013-02-22 15:03:00,44.2,43.0,29.67,SSE,164,4.3,11.4,96,0.00,,,0.45,WUHU21636XXSP,2013-02-22 23:03:00,
2013-02-22 15:04:00,44.2,43.0,29.67,SSE,154,2.8,11.4,96,0.00,,,0.45,WUHU21636XXSP,2013-02-22 23:04:00,
2013-02-22 15:05:00,44.2,43.0,29.67,SSE,157,2.2,11.4,96,0.00,,,0.45,WUHU21636XXSP,2013-02-22 23:05:00,
2013-02-22 15:08:00,44.4,43.2,29.67,East,90,3.5,11.4,96,0.00,,,0.45,WUHU21636XXSP,2013-02-22 23:08:00,
2013-02-22 15:09:00,44.4,43.2,29.67,East,90,3.5,11.4,96,0.00,,,0.45,WUHU21636XXSP,2013-02-22 23:09:00,
2013-02-22 15:10:00,44.6,43.4,29.67,ESE,112,5.1,11.4,96,0.00,,,0.45,WUHU21636XXSP,2013-02-22 23:10:00,
2013-02-22 15:13:00,45.0,43.5,29.67,SW,225,6.4,15.8,95,0.00,,,0.45,WUHU21636XXSP,2013-02-22 23:13:00,
2013-02-22 15:14:00,45.0,43.5,29.67,SW,225,6.4,15.8,95,0.00,,,0.45,WUHU21636XXSP,2013-02-22 23:14:00,
2013-02-22 15:15:00,45.0,43.5,29.67,South,187,3.5,15.8,95,0.00,,,0.45,WUHU21636XXSP,2013-02-22 23:15:00,
2013-02-22 15:18:00,45.3,43.8,29.67,SE,135,3.1,15.8,95,0.00,,,0.45,WUHU21636XXSP,2013-02-22 23:18:00,
2013-02-22 15:19:00,45.3,43.8,29.67,SE,135,3.1,15.8,95,0.00,,,0.45,WUHU21636XXSP,2013-02-22 23:19:00,
2013-02-22 15:20:00,45.7,43.7,29.67,SE,136,3.1,15.8,93,0.00,,,0.45,WUHU21636XXSP,2013-02-22 23:20:00,
2013-02-22 15:24:00,45.7,43.7,29.67,WSW,247,1.5,3.1,93,0.00,,,0.45,WUHU21636XXSP,2013-02-22 23:24:00,
2013-02-22 15:25:00,45.9,43.9,29.67,West,270,5.1,5.1,93,0.00,,,0.45,WUHU21636XXSP,2013-02-22 23:25:00,
2013-02-22 15:29:00,46.0,42.8,29.67,WSW,247,1.3,5.1,89,0.00,,,0.45,WUHU21636XXSP,2013-02-22 23:29:00,
2013-02-22 15:30:00,46.0,42.8,29.67,WSW,247,1.3,5.1,89,0.00,,,0.45,WUHU21636XXSP,2013-02-22 23:30:00,
2013-02-22 15:31:00,46.0,42.8,29.68,WSW,247,1.3,5.1,89,0.00,,,0.45,WUHU21636XXSP,2013-02-22 23:31:00,
2013-02-22 15:34:00,46.4,43.2,29.68,West,270,3.3,5.1,89,0.00,,,0.45,WUHU21636XXSP,2013-02-22 23:34:00,
2013-02-22 15:35:00,46.4,43.2,29.68,West,270,3.3,5.1,89,0.00,,,0.45,WUHU21636XXSP,2013-02-22 23:35:00,
2013-02-22 15:36:00,46.2,42.4,29.68,WSW,247,4.0,5.1,87,0.00,,,0.45,WUHU21636XXSP,2013-02-22 23:36:00,
2013-02-22 15:39:00,46.4,42.6,29.68,West,270,5.1,5.1,87,0.00,,,0.45,WUHU21636XXSP,2013-02-22 23:39:00,
2013-02-22 15:40:00,46.6,41.8,29.68,West,270,5.1,5.1,83,0.00,,,0.45,WUHU21636XXSP,2013-02-22 23:40:00,
2013-02-22 15:41:00,46.6,41.8,29.68,West,270,5.1,5.1,83,0.00,,,0.45,WUHU21636XXSP,2013-02-22 23:41:00,
2013-02-22 15:44:00,46.6,42.5,29.68,WSW,247,1.1,5.1,86,0.00,,,0.45,WUHU21636XXSP,2013-02-22 23:44:00,
2013-02-22 15:45:00,46.6,42.5,29.68,WSW,247,1.1,5.1,86,0.00,,,0.45,WUHU21636XXSP,2013-02-22 23:45:00,
2013-02-22 15:47:00,46.6,42.2,29.68,WSW,247,3.1,5.1,85,0.00,,,0.45,WUHU21636XXSP,2013-02-22 23:47:00,
2013-02-22 15:49:00,46.6,41.5,29.68,SW,234,2.8,5.1,82,0.00,,,0.45,WUHU21636XXSP,2013-02-22 23:49:00,
2013-02-22 15:50:00,46.6,41.5,29.68,SW,232,2.7,5.1,82,0.00,,,0.45,WUHU21636XXSP,2013-02-22 23:50:00,
2013-02-22 15:52:00,46.4,41.3,29.68,SW,225,2.3,3.1,82,0.00,,,0.45,WUHU21636XXSP,2013-02-22 23:52:00,
2013-02-22 15:55:00,46.4,41.7,29.68,WSW,247,3.8,3.8,83,0.00,,,0.45,WUHU21636XXSP,2013-02-22 23:55:00,
2013-02-22 15:57:00,46.2,41.1,29.68,WSW,247,2.6,3.8,82,0.00,,,0.45,WUHU21636XXSP,2013-02-22 23:57:00,
2013-02-22 16:00:00,46.0,40.6,29.68,West,270,3.5,3.8,81,0.00,,,0.45,WUHU21636XXSP,2013-02-23 00:00:00,
2013-02-22 16:01:00,46.0,40.6,29.69,West,270,3.5,3.8,81,0.00,,,0.45,WUHU21636XXSP,2013-02-23 00:01:00,
2013-02-22 16:02:00,46.0,40.6,29.69,West,270,3.5,3.8,81,0.00,,,0.45,WUHU21636XXSP,2013-02-23 00:02:00,
2013-02-22 16:05:00,46.0,40.3,29.69,West,270,2.9,3.8,80,0.00,,,0.45,WUHU21636XXSP,2013-02-23 00:05:00,
2013-02-22 16:06:00,46.0,40.6,29.69,West,266,2.1,3.5,81,0.00,,,0.45,WUHU21636XXSP,2013-02-23 00:06:00,
2013-02-22 16:07:00,46.0,40.6,29.69,WSW,253,1.2,3.5,81,0.00,,,0.45,WUHU21636XXSP,2013-02-23 00:07:00,
2013-02-22 16:10:00,45.7,40.3,29.69,West,268,3.2,3.5,81,0.00,,,0.45,WUHU21636XXSP,2013-02-23 00:10:00,
2013-02-22 16:11:00,45.7,40.3,29.69,West,262,3.0,3.5,81,0.00,,,0.45,WUHU21636XXSP,2013-02-23 00:11:00,
2013-02-22 16:12:00,45.7,40.3,29.69,WSW,247,2.6,3.3,81,0.00,,,0.45,WUHU21636XXSP,2013-02-23 00:12:00,
2013-02-22 16:15:00,45.7,40.3,29.69,West,270,2.2,3.3,81,0.00,,,0.45,WUHU21636XXSP,2013-02-23 00:15:00,
2013-02-22 16:16:00,45.7,40.3,29.69,West,270,2.2,3.3,81,0.00,,,0.45,WUHU21636XXSP,2013-02-23 00:16:00,
2013-02-22 16:17:00,45.7,40.7,29.69,WSW,247,0.0,3.3,82,0.00,,,0.45,WUHU21636XXSP,2013-02-23 00:17:00,
2013-02-22 16:20:00,45.7,40.7,29.68,West,270,4.6,4.6,82,0.00,,,0.45,WUHU21636XXSP,2013-02-23 00:20:00,
2013-02-22 16:21:00,45.5,39.8,29.68,West,270,4.6,4.6,80,0.00,,,0.45,WUHU21636XXSP,2013-02-23 00:21:00,
2013-02-22 16:22:00,45.5,39.8,29.69,West,270,4.6,4.6,80,0.00,,,0.45,WUHU21636XXSP,2013-02-23 00:22:00,
2013-02-22 16:26:00,45.5,39.8,29.69,WSW,247,4.6,4.6,80,0.00,,,0.45,WUHU21636XXSP,2013-02-23 00:26:00,
2013-02-22 16:27:00,45.5,39.8,29.69,WSW,247,4.6,4.6,80,0.00,,,0.45,WUHU21636XXSP,2013-02-23 00:27:00,
2013-02-22 16:31:00,45.3,39.0,29.69,WSW,247,3.1,4.6,78,0.00,,,0.45,WUHU21636XXSP,2013-02-23 00:31:00,
2013-02-22 16:32:00,45.5,39.5,29.69,WSW,237,2.4,4.6,79,0.00,,,0.45,WUHU21636XXSP,2013-02-23 00:32:00,
2013-02-22 16:36:00,45.3,39.3,29.69,West,270,2.0,4.6,79,0.00,,,0.45,WUHU21636XXSP,2013-02-23 00:36:00,
2013-02-22 16:37:00,45.3,39.3,29.69,West,270,2.0,4.6,79,0.00,,,0.45,WUHU21636XXSP,2013-02-23 00:37:00,
2013-02-22 16:38:00,45.3,39.3,29.69,West,270,2.0,3.1,79,0.00,,,0.45,WUHU21636XXSP,2013-02-23 00:38:00,
2013-02-22 16:41:00,45.3,39.0,29.69,WSW,247,3.3,3.3,78,0.00,,,0.45,WUHU21636XXSP,2013-02-23 00:41:00,
2013-02-22 16:42:00,45.3,39.0,29.69,WSW,247,3.3,3.3,78,0.00,,,0.45,WUHU21636XXSP,2013-02-23 00:42:00,
2013-02-22 16:43:00,45.1,38.8,29.69,WSW,252,3.0,3.3,78,0.00,,,0.45,WUHU21636XXSP,2013-02-23 00:43:00,
2013-02-22 16:46:00,45.0,38.4,29.69,WSW,247,1.3,3.3,77,0.00,,,0.45,WUHU21636XXSP,2013-02-23 00:46:00,
2013-02-22 16:47:00,45.0,37.7,29.69,West,270,6.4,6.9,75,0.00,,,0.45,WUHU21636XXSP,2013-02-23 00:47:00,
2013-02-22 16:48:00,44.8,37.1,29.69,West,263,3.8,6.9,74,0.00,,,0.45,WUHU21636XXSP,2013-02-23 00:48:00,
2013-02-22 16:51:00,45.0,38.0,29.69,West,270,2.6,6.9,76,0.00,,,0.45,WUHU21636XXSP,2013-02-23 00:51:00,
2013-02-22 16:52:00,45.0,38.0,29.69,SW,225,0.0,6.9,76,0.00,,,0.45,WUHU21636XXSP,2013-02-23 00:52:00,
2013-02-22 16:54:00,44.8,37.8,29.70,West,270,0.6,6.9,76,0.00,,,0.45,WUHU21636XXSP,2013-02-23 00:54:00,
2013-02-22 16:57:00,44.6,37.3,29.69,West,270,3.1,6.7,75,0.00,,,0.45,WUHU21636XXSP,2013-02-23 00:57:00,
2013-02-22 16:59:00,44.4,37.4,29.70,West,270,3.1,6.2,76,0.00,,,0.45,WUHU21636XXSP,2013-02-23 00:59:00,
2013-02-22 17:02:00,44.2,37.2,29.70,West,270,3.1,6.2,76,0.00,,,0.45,WUHU21636XXSP,2013-02-23 01:02:00,
2013-02-22 17:04:00,44.1,37.1,29.70,West,270,3.1,6.2,76,0.00,,,0.45,WUHU21636XXSP,2013-02-23 01:04:00,
2013-02-22 17:07:00,43.7,36.1,29.70,West,270,2.4,3.3,74,0.00,,,0.45,WUHU21636XXSP,2013-02-23 01:07:00,
2013-02-22 17:09:00,43.7,36.1,29.70,West,270,4.0,4.0,74,0.00,,,0.45,WUHU21636XXSP,2013-02-23 01:09:00,
2013-02-22 17:12:00,43.5,35.2,29.70,WSW,247,2.2,4.0,72,0.00,,,0.45,WUHU21636XXSP,2013-02-23 01:12:00,
2013-02-22 17:13:00,43.5,36.2,29.70,West,270,2.6,4.0,75,0.00,,,0.45,WUHU21636XXSP,2013-02-23 01:13:00,
2013-02-22 17:14:00,43.5,36.2,29.70,West,270,2.6,4.0,75,0.00,,,0.45,WUHU21636XXSP,2013-02-23 01:14:00,
2013-02-22 17:17:00,43.3,35.7,29.70,West,270,3.1,4.0,74,0.00,,,0.45,WUHU21636XXSP,2013-02-23 01:17:00,
2013-02-22 17:18:00,43.3,35.7,29.70,West,270,3.1,4.0,74,0.00,,,0.45,WUHU21636XXSP,2013-02-23 01:18:00,
2013-02-22 17:19:00,43.2,35.9,29.70,West,270,3.0,4.0,75,0.00,,,0.45,WUHU21636XXSP,2013-02-23 01:19:00,
2013-02-22 17:22:00,43.0,35.4,29.70,SSW,202,5.3,5.3,74,0.00,,,0.45,WUHU21636XXSP,2013-02-23 01:22:00,
2013-02-22 17:23:00,42.6,35.7,29.70,SSW,203,5.2,5.3,76,0.00,,,0.45,WUHU21636XXSP,2013-02-23 01:23:00,
2013-02-22 17:24:00,42.6,35.7,29.70,WSW,237,3.4,5.3,76,0.00,,,0.45,WUHU21636XXSP,2013-02-23 01:24:00,
2013-02-22 17:27:00,42.4,35.5,29.71,WSW,247,1.7,5.3,76,0.00,,,0.45,WUHU21636XXSP,2013-02-23 01:27:00,
2013-02-22 17:28:00,42.4,35.5,29.71,WSW,247,1.7,5.3,76,0.00,,,0.45,WUHU21636XXSP,2013-02-23 01:28:00,
2013-02-22 17:29:00,42.3,35.7,29.71,WSW,247,1.7,5.3,77,0.00,,,0.45,WUHU21636XXSP,2013-02-23 01:29:00,
2013-02-22 17:32:00,42.1,35.9,29.71,West,270,0.0,5.3,78,0.00,,,0.45,WUHU21636XXSP,2013-02-23 01:32:00,
2013-02-22 17:33:00,42.1,35.9,29.71,West,270,0.0,2.6,78,0.00,,,0.45,WUHU21636XXSP,2013-02-23 01:33:00,
2013-02-22 17:34:00,42.1,36.2,29.71,WSW,247,1.1,2.6,79,0.00,,,0.45,WUHU21636XXSP,2013-02-23 01:34:00,
2013-02-22 17:38:00,41.7,35.8,29.71,West,270,1.6,1.7,79,0.00,,,0.45,WUHU21636XXSP,2013-02-23 01:38:00,
2013-02-22 17:39:00,41.7,35.8,29.72,West,270,0.6,1.7,79,0.00,,,0.45,WUHU21636XXSP,2013-02-23 01:39:00,
2013-02-22 17:43:00,41.2,35.6,29.71,WSW,247,2.6,2.6,80,0.00,,,0.45,WUHU21636XXSP,2013-02-23 01:43:00,
2013-02-22 17:44:00,41.2,35.9,29.71,WSW,247,2.6,2.6,81,0.00,,,0.45,WUHU21636XXSP,2013-02-23 01:44:00,
2013-02-22 17:48:00,41.2,35.9,29.71,West,270,0.0,2.6,81,0.00,,,0.45,WUHU21636XXSP,2013-02-23 01:48:00,
2013-02-22 17:49:00,41.2,36.2,29.71,WSW,247,4.0,4.0,82,0.00,,,0.45,WUHU21636XXSP,2013-02-23 01:49:00,
2013-02-22 17:53:00,40.8,35.9,29.71,West,270,2.9,4.0,82,0.00,,,0.45,WUHU21636XXSP,2013-02-23 01:53:00,
2013-02-22 17:54:00,40.8,35.9,29.72,West,270,2.9,4.0,82,0.00,,,0.45,WUHU21636XXSP,2013-02-23 01:54:00,
2013-02-22 17:58:00,40.6,35.7,29.71,West,270,2.2,4.0,82,0.00,,,0.45,WUHU21636XXSP,2013-02-23 01:58:00,
2013-02-22 18:00:00,40.6,35.7,29.72,West,270,4.0,4.0,82,0.00,,,0.45,WUHU21636XXSP,2013-02-23 02:00:00,
2013-02-22 18:03:00,40.6,35.7,29.72,WSW,247,4.2,4.2,82,0.00,,,0.45,WUHU21636XXSP,2013-02-23 02:03:00,
2013-02-22 18:04:00,40.6,35.7,29.72,WSW,247,4.2,4.2,82,0.00,,,0.45,WUHU21636XXSP,2013-02-23 02:04:00,
2013-02-22 18:05:00,40.6,35.7,29.72,WSW,255,3.6,4.2,82,0.00,,,0.45,WUHU21636XXSP,2013-02-23 02:05:00,
2013-02-22 18:08:00,40.3,35.4,29.72,WSW,247,2.2,4.2,82,0.00,,,0.45,WUHU21636XXSP,2013-02-23 02:08:00,
2013-02-22 18:09:00,40.3,35.4,29.72,WSW,247,1.9,4.2,82,0.00,,,0.45,WUHU21636XXSP,2013-02-23 02:09:00,
2013-02-22 18:10:00,40.3,35.4,29.72,WSW,247,1.4,4.2,82,0.00,,,0.45,WUHU21636XXSP,2013-02-23 02:10:00,
2013-02-22 18:13:00,40.3,35.1,29.72,West,270,1.3,4.2,81,0.00,,,0.45,WUHU21636XXSP,2013-02-23 02:13:00,
2013-02-22 18:14:00,40.3,35.1,29.72,West,270,1.3,4.2,81,0.00,,,0.45,WUHU21636XXSP,2013-02-23 02:14:00,
2013-02-22 18:15:00,40.1,35.2,29.72,WSW,247,1.5,2.9,82,0.00,,,0.45,WUHU21636XXSP,2013-02-23 02:15:00,
2013-02-22 18:18:00,40.1,35.2,29.72,SW,225,3.5,3.5,82,0.00,,,0.45,WUHU21636XXSP,2013-02-23 02:18:00,
2013-02-22 18:19:00,40.1,35.2,29.72,SW,225,3.5,3.5,82,0.00,,,0.45,WUHU21636XXSP,2013-02-23 02:19:00,
2013-02-22 18:20:00,40.1,35.2,29.72,SW,225,3.5,3.5,82,0.00,,,0.45,WUHU21636XXSP,2013-02-23 02:20:00,
2013-02-22 18:24:00,39.9,34.7,29.73,SW,225,0.0,3.5,81,0.00,,,0.45,WUHU21636XXSP,2013-02-23 02:24:00,
2013-02-22 18:25:00,39.9,34.7,29.73,SW,225,0.0,3.5,81,0.00,,,0.45,WUHU21636XXSP,2013-02-23 02:25:00,
2013-02-22 18:29:00,39.9,35.0,29.73,SE,135,0.0,3.5,82,0.00,,,0.45,WUHU21636XXSP,2013-02-23 02:29:00,
2013-02-22 18:30:00,39.9,35.0,29.73,SE,135,0.0,0.0,82,0.00,,,0.45,WUHU21636XXSP,2013-02-23 02:30:00,
2013-02-22 18:34:00,39.7,34.5,29.74,West,270,1.1,1.1,81,0.00,,,0.45,WUHU21636XXSP,2013-02-23 02:34:00,
2013-02-22 18:35:00,39.7,34.5,29.74,SW,225,2.0,2.0,81,0.00,,,0.45,WUHU21636XXSP,2013-02-23 02:35:00,
2013-02-22 18:39:00,39.7,34.2,29.75,West,270,2.0,2.6,80,0.00,,,0.45,WUHU21636XXSP,2013-02-23 02:39:00,
2013-02-22 18:40:00,39.7,34.2,29.75,West,270,1.5,2.6,80,0.00,,,0.45,WUHU21636XXSP,2013-02-23 02:40:00,
2013-02-22 18:44:00,39.7,34.2,29.75,West,270,0.0,2.6,80,0.00,,,0.45,WUHU21636XXSP,2013-02-23 02:44:00,
2013-02-22 18:45:00,39.7,34.5,29.75,WSW,247,0.0,2.6,81,0.00,,,0.45,WUHU21636XXSP,2013-02-23 02:45:00,
2013-02-22 18:49:00,39.6,34.7,29.76,SSW,202,0.0,1.1,82,0.00,,,0.45,WUHU21636XXSP,2013-02-23 02:49:00,
2013-02-22 18:50:00,39.6,34.7,29.76,SSW,202,0.0,1.1,82,0.00,,,0.45,WUHU21636XXSP,2013-02-23 02:50:00,
2013-02-22 18:52:00,39.4,34.2,29.76,West,270,0.0,0.0,81,0.00,,,0.45,WUHU21636XXSP,2013-02-23 02:52:00,
2013-02-22 18:54:00,39.4,34.2,29.76,WNW,292,0.0,0.0,81,0.00,,,0.45,WUHU21636XXSP,2013-02-23 02:54:00,
2013-02-22 18:55:00,39.4,34.2,29.77,WNW,292,0.0,0.0,81,0.00,,,0.45,WUHU21636XXSP,2013-02-23 02:55:00,
2013-02-22 18:57:00,39.0,33.8,29.77,WSW,247,2.0,2.0,81,0.00,,,0.45,WUHU21636XXSP,2013-02-23 02:57:00,
2013-02-22 18:59:00,39.0,33.8,29.77,WSW,247,1.2,2.0,81,0.00,,,0.45,WUHU21636XXSP,2013-02-23 02:59:00,
2013-02-22 19:00:00,39.0,33.8,29.77,WSW,247,1.1,2.0,81,0.00,,,0.45,WUHU21636XXSP,2013-02-23 03:00:00,
2013-02-22 19:02:00,39.0,34.1,29.76,WSW,247,0.0,2.0,82,0.00,,,0.45,WUHU21636XXSP,2013-02-23 03:02:00,
2013-02-22 19:05:00,39.0,34.4,29.76,West,270,3.2,3.5,83,0.00,,,0.45,WUHU21636XXSP,2013-02-23 03:05:00,
2013-02-22 19:07:00,39.0,33.8,29.75,West,270,1.9,3.5,81,0.00,,,0.45,WUHU21636XXSP,2013-02-23 03:07:00,
2013-02-22 19:10:00,38.8,33.9,29.75,West,259,1.0,3.5,82,0.00,,,0.45,WUHU21636XXSP,2013-02-23 03:10:00,
2013-02-22 19:11:00,38.8,33.9,29.75,WSW,247,0.8,3.5,82,0.00,,,0.45,WUHU21636XXSP,2013-02-23 03:11:00,
2013-02-22 19:12:00,38.8,33.9,29.75,WSW,247,0.5,3.5,82,0.00,,,0.45,WUHU21636XXSP,2013-02-23 03:12:00,
2013-02-22 19:15:00,38.8,33.6,29.75,WSW,247,3.1,3.1,81,0.00,,,0.45,WUHU21636XXSP,2013-02-23 03:15:00,
2013-02-22 19:16:00,38.7,33.8,29.75,WSW,247,2.2,3.1,82,0.00,,,0.45,WUHU21636XXSP,2013-02-23 03:16:00,
2013-02-22 19:17:00,38.7,33.8,29.75,WSW,247,0.4,3.1,82,0.00,,,0.45,WUHU21636XXSP,2013-02-23 03:17:00,
2013-02-22 19:20:00,38.5,33.9,29.75,West,268,2.3,3.1,83,0.00,,,0.45,WUHU21636XXSP,2013-02-23 03:20:00,
2013-02-22 19:21:00,38.5,33.9,29.75,West,261,1.4,3.1,83,0.00,,,0.45,WUHU21636XXSP,2013-02-23 03:21:00,
2013-02-22 19:22:00,38.3,34.0,29.75,SW,225,4.6,4.6,85,0.00,,,0.45,WUHU21636XXSP,2013-02-23 03:22:00,
2013-02-22 19:25:00,38.1,33.8,29.75,SW,225,4.6,4.6,85,0.00,,,0.45,WUHU21636XXSP,2013-02-23 03:25:00,
2013-02-22 19:26:00,38.1,33.8,29.75,West,270,0.0,4.6,85,0.00,,,0.45,WUHU21636XXSP,2013-02-23 03:26:00,
2013-02-22 19:28:00,38.1,33.8,29.76,West,270,0.0,4.6,85,0.00,,,0.45,WUHU21636XXSP,2013-02-23 03:28:00,
2013-02-22 19:30:00,38.1,33.8,29.76,WSW,247,0.6,4.6,85,0.00,,,0.45,WUHU21636XXSP,2013-02-23 03:30:00,
2013-02-22 19:31:00,37.9,33.9,29.76,WSW,247,0.6,4.6,86,0.00,,,0.45,WUHU21636XXSP,2013-02-23 03:31:00,
2013-02-22 19:33:00,37.9,33.9,29.76,WSW,247,1.1,4.6,86,0.00,,,0.45,WUHU21636XXSP,2013-02-23 03:33:00,
2013-02-22 19:35:00,37.8,34.1,29.77,WSW,247,1.1,1.1,87,0.00,,,0.45,WUHU21636XXSP,2013-02-23 03:35:00,
2013-02-22 19:36:00,37.8,34.1,29.77,WSW,247,1.1,1.1,87,0.00,,,0.45,WUHU21636XXSP,2013-02-23 03:36:00,
2013-02-22 19:38:00,37.9,34.2,29.77,SSW,202,0.0,1.1,87,0.00,,,0.45,WUHU21636XXSP,2013-02-23 03:38:00,
2013-02-22 19:40:00,37.9,34.2,29.77,SSW,202,0.4,1.1,87,0.00,,,0.45,WUHU21636XXSP,2013-02-23 03:40:00,
2013-02-22 19:41:00,37.8,34.1,29.77,SW,225,0.6,1.1,87,0.00,,,0.45,WUHU21636XXSP,2013-02-23 03:41:00,
2013-02-22 19:42:00,37.8,34.1,29.77,SW,225,0.6,1.1,87,0.00,,,0.45,WUHU21636XXSP,2013-02-23 03:42:00,
2013-02-22 19:43:00,37.8,34.1,29.78,SW,225,0.6,1.1,87,0.00,,,0.45,WUHU21636XXSP,2013-02-23 03:43:00,
2013-02-22 19:45:00,37.8,34.1,29.78,SSW,202,0.0,0.6,87,0.00,,,0.45,WUHU21636XXSP,2013-02-23 03:45:00,
2013-02-22 19:46:00,37.8,34.1,29.78,SSW,202,0.0,0.6,87,0.00,,,0.45,WUHU21636XXSP,2013-02-23 03:46:00,
2013-02-22 19:47:00,37.8,34.1,29.78,SSW,202,0.0,0.6,87,0.00,,,0.45,WUHU21636XXSP,2013-02-23 03:47:00,
2013-02-22 19:48:00,37.8,34.1,29.78,SSW,202,0.0,0.6,87,0.00,,,0.45,WUHU21636XXSP,2013-02-23 03:48:00,
2013-02-22 19:50:00,37.8,34.1,29.78,South,180,0.0,0.6,87,0.00,,,0.45,WUHU21636XXSP,2013-02-23 03:50:00,
2013-02-22 19:52:00,37.6,33.9,29.78,SSE,157,3.3,3.3,87,0.00,,,0.45,WUHU21636XXSP,2013-02-23 03:52:00,
2013-02-22 19:53:00,37.6,33.9,29.78,SSE,157,3.3,3.3,87,0.00,,,0.45,WUHU21636XXSP,2013-02-23 03:53:00,
2013-02-22 19:56:00,37.4,33.7,29.79,SSE,157,0.0,3.3,87,0.00,,,0.45,WUHU21636XXSP,2013-02-23 03:56:00,
2013-02-22 19:57:00,37.2,33.5,29.80,SSE,157,0.0,3.3,87,0.00,,,0.45,WUHU21636XXSP,2013-02-23 03:57:00,
2013-02-22 19:58:00,37.2,33.8,29.80,SE,135,0.0,3.3,88,0.00,,,0.45,WUHU21636XXSP,2013-02-23 03:58:00,
2013-02-22 20:01:00,37.0,33.6,29.80,SE,135,0.0,3.3,88,0.00,,,0.45,WUHU21636XXSP,2013-02-23 04:01:00,
2013-02-22 20:02:00,37.0,33.6,29.80,SE,135,0.0,3.3,88,0.00,,,0.45,WUHU21636XXSP,2013-02-23 04:02:00,
2013-02-22 20:03:00,37.0,33.6,29.80,SE,135,0.0,3.3,88,0.00,,,0.45,WUHU21636XXSP,2013-02-23 04:03:00,
2013-02-22 20:06:00,37.0,33.9,29.80,SSW,202,0.0,0.0,89,0.00,,,0.45,WUHU21636XXSP,2013-02-23 04:06:00,
2013-02-22 20:07:00,37.0,33.9,29.80,SSW,202,0.0,0.0,89,0.00,,,0.45,WUHU21636XXSP,2013-02-23 04:07:00,
2013-02-22 20:08:00,37.0,33.9,29.80,SSW,202,0.0,0.0,89,0.00,,,0.45,WUHU21636XXSP,2013-02-23 04:08:00,
2013-02-22 20:11:00,37.2,34.4,29.80,SSW,202,0.0,0.0,90,0.00,,,0.45,WUHU21636XXSP,2013-02-23 04:11:00,
2013-02-22 20:12:00,37.0,33.9,29.79,SW,225,2.0,2.0,89,0.00,,,0.45,WUHU21636XXSP,2013-02-23 04:12:00,
2013-02-22 20:13:00,37.2,33.8,29.79,SW,225,2.0,2.0,88,0.00,,,0.45,WUHU21636XXSP,2013-02-23 04:13:00,
2013-02-22 20:16:00,37.4,33.7,29.80,WSW,247,0.0,2.0,87,0.00,,,0.45,WUHU21636XXSP,2013-02-23 04:16:00,
2013-02-22 20:17:00,37.4,33.7,29.80,WSW,247,0.0,2.0,87,0.00,,,0.45,WUHU21636XXSP,2013-02-23 04:17:00,
2013-02-22 20:18:00,37.6,33.9,29.80,WSW,247,0.0,2.0,87,0.00,,,0.45,WUHU21636XXSP,2013-02-23 04:18:00,
2013-02-22 20:21:00,37.6,33.6,29.80,SSW,202,3.3,3.3,86,0.00,,,0.45,WUHU21636XXSP,2013-02-23 04:21:00,
2013-02-22 20:22:00,37.6,33.6,29.80,SSW,202,3.3,3.3,86,0.00,,,0.45,WUHU21636XXSP,2013-02-23 04:22:00,
2013-02-22 20:23:00,37.6,33.6,29.80,SSW,202,3.3,3.3,86,0.00,,,0.45,WUHU21636XXSP,2013-02-23 04:23:00,
2013-02-22 20:26:00,37.6,33.6,29.79,SW,225,4.4,4.4,86,0.00,,,0.45,WUHU21636XXSP,2013-02-23 04:26:00,
2013-02-22 20:27:00,37.6,33.6,29.79,SW,225,4.4,4.4,86,0.00,,,0.45,WUHU21636XXSP,2013-02-23 04:27:00,
2013-02-22 20:28:00,37.6,33.6,29.79,SW,225,4.4,4.4,86,0.00,,,0.45,WUHU21636XXSP,2013-02-23 04:28:00,
2013-02-22 20:31:00,37.6,33.3,29.80,West,270,2.2,4.4,85,0.00,,,0.45,WUHU21636XXSP,2013-02-23 04:31:00,
2013-02-22 20:32:00,37.6,33.6,29.80,West,270,2.2,4.4,86,0.00,,,0.45,WUHU21636XXSP,2013-02-23 04:32:00,
2013-02-22 20:33:00,37.6,33.6,29.80,West,270,2.2,4.4,86,0.00,,,0.45,WUHU21636XXSP,2013-02-23 04:33:00,
2013-02-22 20:34:00,37.6,33.6,29.80,West,270,2.2,4.4,86,0.00,,,0.45,WUHU21636XXSP,2013-02-23 04:34:00,
2013-02-22 20:36:00,37.6,33.3,29.80,SW,225,0.0,2.2,85,0.00,,,0.45,WUHU21636XXSP,2013-02-23 04:36:00,
2013-02-22 20:38:00,37.6,33.6,29.80,South,180,0.0,2.2,86,0.00,,,0.45,WUHU21636XXSP,2013-02-23 04:38:00,
2013-02-22 20:39:00,37.6,33.6,29.80,South,180,0.0,2.2,86,0.00,,,0.45,WUHU21636XXSP,2013-02-23 04:39:00,
2013-02-22 20:41:00,37.6,33.6,29.80,SW,225,0.0,2.2,86,0.00,,,0.45,WUHU21636XXSP,2013-02-23 04:41:00,
2013-02-22 20:43:00,37.6,33.6,29.80,SW,225,0.0,0.0,86,0.00,,,0.45,WUHU21636XXSP,2013-02-23 04:43:00,
2013-02-22 20:44:00,37.6,33.3,29.80,SW,225,0.0,0.0,85,0.00,,,0.45,WUHU21636XXSP,2013-02-23 04:44:00,
2013-02-22 20:47:00,37.6,33.6,29.81,WSW,247,0.0,0.0,86,0.00,,,0.45,WUHU21636XXSP,2013-02-23 04:47:00,
2013-02-22 20:48:00,37.4,33.1,29.81,WSW,247,0.0,0.0,85,0.00,,,0.45,WUHU21636XXSP,2013-02-23 04:48:00,
2013-02-22 20:49:00,37.4,33.1,29.81,WSW,247,0.0,0.0,85,0.00,,,0.45,WUHU21636XXSP,2013-02-23 04:49:00,
2013-02-22 20:52:00,37.2,32.9,29.81,WSW,247,0.0,0.0,85,0.00,,,0.45,WUHU21636XXSP,2013-02-23 04:52:00,
2013-02-22 20:53:00,37.2,32.9,29.81,WSW,247,0.0,0.0,85,0.00,,,0.45,WUHU21636XXSP,2013-02-23 04:53:00,
2013-02-22 20:54:00,37.0,33.0,29.81,WSW,247,0.0,0.0,86,0.00,,,0.45,WUHU21636XXSP,2013-02-23 04:54:00,
2013-02-22 20:57:00,37.0,33.0,29.81,WSW,247,0.0,0.0,86,0.00,,,0.45,WUHU21636XXSP,2013-02-23 04:57:00,
2013-02-22 20:58:00,37.0,33.0,29.81,WSW,247,0.0,0.0,86,0.00,,,0.45,WUHU21636XXSP,2013-02-23 04:58:00,
2013-02-22 20:59:00,37.0,33.0,29.82,SW,225,0.0,0.0,86,0.00,,,0.45,WUHU21636XXSP,2013-02-23 04:59:00,
2013-02-22 21:00:00,37.0,33.0,29.82,SW,225,0.0,0.0,86,0.00,,,0.45,WUHU21636XXSP,2013-02-23 05:00:00,
2013-02-22 21:05:00,37.0,33.3,29.82,SW,225,0.0,0.0,87,0.00,,,0.45,WUHU21636XXSP,2013-02-23 05:05:00,
2013-02-22 21:10:00,36.7,32.7,29.82,SSW,202,0.0,0.0,86,0.00,,,0.45,WUHU21636XXSP,2013-02-23 05:10:00,
2013-02-22 21:15:00,36.7,33.0,29.82,South,180,0.0,0.0,87,0.00,,,0.45,WUHU21636XXSP,2013-02-23 05:15:00,
2013-02-22 21:20:00,36.7,33.0,29.83,SSW,202,0.0,0.0,87,0.00,,,0.45,WUHU21636XXSP,2013-02-23 05:20:00,
2013-02-22 21:25:00,36.5,32.8,29.82,South,180,2.2,2.2,87,0.00,,,0.45,WUHU21636XXSP,2013-02-23 05:25:00,
2013-02-22 21:26:00,36.5,32.8,29.82,South,180,2.2,2.2,87,0.00,,,0.45,WUHU21636XXSP,2013-02-23 05:26:00,
2013-02-22 21:30:00,36.5,32.8,29.83,South,180,0.0,2.2,87,0.00,,,0.45,WUHU21636XXSP,2013-02-23 05:30:00,
2013-02-22 21:31:00,36.3,32.6,29.83,South,180,0.0,2.2,87,0.00,,,0.45,WUHU21636XXSP,2013-02-23 05:31:00,
2013-02-22 21:35:00,36.1,32.4,29.83,SE,135,0.0,2.2,87,0.00,,,0.45,WUHU21636XXSP,2013-02-23 05:35:00,
2013-02-22 21:36:00,36.1,32.4,29.83,SE,135,0.0,2.2,87,0.00,,,0.45,WUHU21636XXSP,2013-02-23 05:36:00,
2013-02-22 21:40:00,36.0,32.3,29.84,SE,135,0.0,0.0,87,0.00,,,0.45,WUHU21636XXSP,2013-02-23 05:40:00,
2013-02-22 21:41:00,36.0,32.3,29.84,SE,135,0.0,0.0,87,0.00,,,0.45,WUHU21636XXSP,2013-02-23 05:41:00,
2013-02-22 21:45:00,35.8,32.4,29.84,SE,135,0.0,0.0,88,0.00,,,0.45,WUHU21636XXSP,2013-02-23 05:45:00,
2013-02-22 21:46:00,35.6,32.2,29.84,SE,135,0.0,0.0,88,0.00,,,0.45,WUHU21636XXSP,2013-02-23 05:46:00,
2013-02-22 21:50:00,35.4,32.3,29.85,SE,135,0.0,0.0,89,0.00,,,0.45,WUHU21636XXSP,2013-02-23 05:50:00,
2013-02-22 21:51:00,35.4,32.3,29.84,SE,135,0.0,0.0,89,0.00,,,0.45,WUHU21636XXSP,2013-02-23 05:51:00,
2013-02-22 21:56:00,35.2,32.1,29.84,SE,135,0.0,0.0,89,0.00,,,0.45,WUHU21636XXSP,2013-02-23 05:56:00,
2013-02-22 21:57:00,35.2,32.1,29.84,SE,135,0.0,0.0,89,0.00,,,0.45,WUHU21636XXSP,2013-02-23 05:57:00,
2013-02-22 22:01:00,35.2,32.1,29.85,SW,225,0.8,0.8,89,0.00,,,0.45,WUHU21636XXSP,2013-02-23 06:01:00,
2013-02-22 22:02:00,35.2,32.1,29.85,SW,225,0.8,0.8,89,0.00,,,0.45,WUHU21636XXSP,2013-02-23 06:02:00,
2013-02-22 22:06:00,35.2,32.1,29.85,SSW,202,0.0,0.8,89,0.00,,,0.45,WUHU21636XXSP,2013-02-23 06:06:00,
2013-02-22 22:07:00,35.2,32.1,29.85,SSW,202,0.0,0.8,89,0.00,,,0.45,WUHU21636XXSP,2013-02-23 06:07:00,
2013-02-22 22:11:00,35.4,32.3,29.86,SSW,202,0.0,0.8,89,0.00,,,0.45,WUHU21636XXSP,2013-02-23 06:11:00,
2013-02-22 22:12:00,35.4,32.3,29.86,SSW,202,0.0,0.0,89,0.00,,,0.45,WUHU21636XXSP,2013-02-23 06:12:00,
2013-02-22 22:16:00,36.0,32.9,29.86,SSW,202,0.0,0.0,89,0.00,,,0.45,WUHU21636XXSP,2013-02-23 06:16:00,
2013-02-22 22:18:00,36.0,32.9,29.85,SSW,202,0.0,0.0,89,0.00,,,0.45,WUHU21636XXSP,2013-02-23 06:18:00,
2013-02-22 22:21:00,36.1,32.7,29.85,SSW,202,0.0,0.0,88,0.00,,,0.45,WUHU21636XXSP,2013-02-23 06:21:00,
2013-02-22 22:22:00,36.1,32.7,29.86,SSW,202,0.0,0.0,88,0.00,,,0.45,WUHU21636XXSP,2013-02-23 06:22:00,
2013-02-22 22:23:00,36.3,32.6,29.86,SSW,202,0.0,0.0,87,0.00,,,0.45,WUHU21636XXSP,2013-02-23 06:23:00,
2013-02-22 22:24:00,36.3,32.6,29.86,SSW,202,0.0,0.0,87,0.00,,,0.45,WUHU21636XXSP,2013-02-23 06:24:00,
2013-02-22 22:27:00,36.5,32.8,29.86,SSW,202,0.0,0.0,87,0.00,,,0.45,WUHU21636XXSP,2013-02-23 06:27:00,
2013-02-22 22:28:00,36.5,32.8,29.86,SSW,202,0.0,0.0,87,0.00,,,0.45,WUHU21636XXSP,2013-02-23 06:28:00,
2013-02-22 22:29:00,36.5,32.8,29.86,SW,225,0.0,0.0,87,0.00,,,0.45,WUHU21636XXSP,2013-02-23 06:29:00,
2013-02-22 22:32:00,36.5,32.8,29.86,SW,225,0.0,0.0,87,0.00,,,0.45,WUHU21636XXSP,2013-02-23 06:32:00,
2013-02-22 22:33:00,36.5,32.8,29.86,SW,225,0.0,0.0,87,0.00,,,0.45,WUHU21636XXSP,2013-02-23 06:33:00,
2013-02-22 22:34:00,36.5,32.8,29.86,SW,225,0.0,0.0,87,0.00,,,0.45,WUHU21636XXSP,2013-02-23 06:34:00,
2013-02-22 22:37:00,36.5,32.8,29.86,SW,225,0.0,0.0,87,0.00,,,0.45,WUHU21636XXSP,2013-02-23 06:37:00,
2013-02-22 22:39:00,36.3,32.6,29.86,SW,225,0.0,0.0,87,0.00,,,0.45,WUHU21636XXSP,2013-02-23 06:39:00,
2013-02-22 22:42:00,36.1,32.7,29.87,SW,225,0.0,0.0,88,0.00,,,0.45,WUHU21636XXSP,2013-02-23 06:42:00,
2013-02-22 22:44:00,36.0,32.6,29.87,SW,225,0.0,0.0,88,0.00,,,0.45,WUHU21636XXSP,2013-02-23 06:44:00,
2013-02-22 22:45:00,36.0,32.6,29.87,SW,225,0.0,0.0,88,0.00,,,0.45,WUHU21636XXSP,2013-02-23 06:45:00,
2013-02-22 22:47:00,36.0,32.6,29.88,SW,225,0.0,0.0,88,0.00,,,0.45,WUHU21636XXSP,2013-02-23 06:47:00,
2013-02-22 22:49:00,35.6,32.2,29.88,SW,225,0.0,0.0,88,0.00,,,0.45,WUHU21636XXSP,2013-02-23 06:49:00,
2013-02-22 22:50:00,35.6,32.2,29.88,SW,225,0.0,0.0,88,0.00,,,0.45,WUHU21636XXSP,2013-02-23 06:50:00,
2013-02-22 22:52:00,35.2,32.1,29.88,SW,225,0.0,0.0,89,0.00,,,0.45,WUHU21636XXSP,2013-02-23 06:52:00,
2013-02-22 22:54:00,35.2,32.1,29.88,SW,225,0.0,0.0,89,0.00,,,0.45,WUHU21636XXSP,2013-02-23 06:54:00,
2013-02-22 22:55:00,35.2,32.1,29.88,SW,225,0.0,0.0,89,0.00,,,0.45,WUHU21636XXSP,2013-02-23 06:55:00,
2013-02-22 22:58:00,35.4,32.3,29.88,SW,225,0.0,0.0,89,0.00,,,0.45,WUHU21636XXSP,2013-02-23 06:58:00,
2013-02-22 22:59:00,35.2,32.1,29.88,SW,225,0.0,0.0,89,0.00,,,0.45,WUHU21636XXSP,2013-02-23 06:59:00,
2013-02-22 23:00:00,35.2,32.1,29.88,SW,225,0.0,0.0,89,0.00,,,0.45,WUHU21636XXSP,2013-02-23 07:00:00,
2013-02-22 23:03:00,35.2,32.1,29.88,SW,225,0.0,0.0,89,0.00,,,0.45,WUHU21636XXSP,2013-02-23 07:03:00,
2013-02-22 23:05:00,35.2,32.1,29.88,SW,225,0.0,0.0,89,0.00,,,0.45,WUHU21636XXSP,2013-02-23 07:05:00,
2013-02-22 23:08:00,34.9,31.8,29.88,SW,225,0.0,0.0,89,0.00,,,0.45,WUHU21636XXSP,2013-02-23 07:08:00,
2013-02-22 23:10:00,34.9,31.8,29.88,SW,225,0.0,0.0,89,0.00,,,0.45,WUHU21636XXSP,2013-02-23 07:10:00,
2013-02-22 23:13:00,34.7,31.6,29.88,SW,225,0.0,0.0,89,0.00,,,0.45,WUHU21636XXSP,2013-02-23 07:13:00,
2013-02-22 23:15:00,34.7,31.6,29.88,SW,225,0.0,0.0,89,0.00,,,0.45,WUHU21636XXSP,2013-02-23 07:15:00,
2013-02-22 23:16:00,34.7,31.6,29.88,SW,225,0.0,0.0,89,0.00,,,0.45,WUHU21636XXSP,2013-02-23 07:16:00,
2013-02-22 23:18:00,34.7,31.6,29.89,SW,225,0.0,0.0,89,0.00,,,0.45,WUHU21636XXSP,2013-02-23 07:18:00,
2013-02-22 23:20:00,34.7,31.6,29.89,SW,225,0.0,0.0,89,0.00,,,0.45,WUHU21636XXSP,2013-02-23 07:20:00,
2013-02-22 23:21:00,34.7,31.6,29.89,SW,225,0.0,0.0,89,0.00,,,0.45,WUHU21636XXSP,2013-02-23 07:21:00,
2013-02-22 23:23:00,34.7,31.6,29.89,SW,225,0.0,0.0,89,0.00,,,0.45,WUHU21636XXSP,2013-02-23 07:23:00,
2013-02-22 23:25:00,34.7,31.6,29.88,SW,225,0.0,0.0,89,0.00,,,0.45,WUHU21636XXSP,2013-02-23 07:25:00,
2013-02-22 23:26:00,34.7,31.6,29.88,SW,225,0.0,0.0,89,0.00,,,0.45,WUHU21636XXSP,2013-02-23 07:26:00,
2013-02-22 23:28:00,34.7,31.9,29.89,SW,225,0.0,0.0,90,0.00,,,0.45,WUHU21636XXSP,2013-02-23 07:28:00,
2013-02-22 23:29:00,34.7,31.9,29.89,SW,225,0.0,0.0,90,0.00,,,0.45,WUHU21636XXSP,2013-02-23 07:29:00,
2013-02-22 23:30:00,34.7,31.9,29.89,SW,225,0.0,0.0,90,0.00,,,0.45,WUHU21636XXSP,2013-02-23 07:30:00,
2013-02-22 23:31:00,34.7,31.9,29.89,SW,225,0.0,0.0,90,0.00,,,0.45,WUHU21636XXSP,2013-02-23 07:31:00,
2013-02-22 23:33:00,34.7,31.9,29.89,SW,225,0.0,0.0,90,0.00,,,0.45,WUHU21636XXSP,2013-02-23 07:33:00,
2013-02-22 23:34:00,34.7,31.9,29.89,SW,225,0.0,0.0,90,0.00,,,0.45,WUHU21636XXSP,2013-02-23 07:34:00,
2013-02-22 23:35:00,34.7,31.9,29.89,SW,225,0.0,0.0,90,0.00,,,0.45,WUHU21636XXSP,2013-02-23 07:35:00,
2013-02-22 23:36:00,34.7,31.9,29.89,SW,225,0.0,0.0,90,0.00,,,0.45,WUHU21636XXSP,2013-02-23 07:36:00,
2013-02-22 23:38:00,34.7,31.9,29.89,SW,225,0.0,0.0,90,0.00,,,0.45,WUHU21636XXSP,2013-02-23 07:38:00,
2013-02-22 23:39:00,34.7,31.9,29.88,SW,225,0.0,0.0,90,0.00,,,0.45,WUHU21636XXSP,2013-02-23 07:39:00,
2013-02-22 23:41:00,34.7,32.2,29.88,SW,225,0.0,0.0,91,0.00,,,0.45,WUHU21636XXSP,2013-02-23 07:41:00,
2013-02-22 23:42:00,34.7,32.2,29.88,SW,225,0.0,0.0,91,0.00,,,0.45,WUHU21636XXSP,2013-02-23 07:42:00,
2013-02-22 23:43:00,34.7,32.2,29.89,SSW,202,1.5,1.5,91,0.00,,,0.45,WUHU21636XXSP,2013-02-23 07:43:00,
2013-02-22 23:44:00,34.7,32.2,29.89,SSW,202,1.5,1.5,91,0.00,,,0.45,WUHU21636XXSP,2013-02-23 07:44:00,
2013-02-22 23:46:00,34.7,32.2,29.89,SSW,202,1.5,1.5,91,0.00,,,0.45,WUHU21636XXSP,2013-02-23 07:46:00,
2013-02-22 23:47:00,34.7,32.2,29.89,SSW,202,0.0,1.5,91,0.00,,,0.45,WUHU21636XXSP,2013-02-23 07:47:00,
2013-02-22 23:49:00,34.7,31.9,29.89,SSW,202,0.0,1.5,90,0.00,,,0.45,WUHU21636XXSP,2013-02-23 07:49:00,
2013-02-22 23:51:00,34.7,31.9,29.89,SSW,202,0.0,1.5,90,0.00,,,0.45,WUHU21636XXSP,2013-02-23 07:51:00,
2013-02-22 23:52:00,34.7,31.9,29.89,SSW,202,0.0,1.5,90,0.00,,,0.45,WUHU21636XXSP,2013-02-23 07:52:00,
2013-02-22 23:54:00,34.9,32.1,29.89,SSW,202,0.0,1.5,90,0.00,,,0.45,WUHU21636XXSP,2013-02-23 07:54:00,
2013-02-22 23:56:00,35.1,32.3,29.90,SSW,202,0.0,0.0,90,0.00,,,0.45,WUHU21636XXSP,2013-02-23 07:56:00,
2013-02-22 23:57:00,35.1,32.3,29.89,SSW,202,0.0,0.0,90,0.00,,,0.45,WUHU21636XXSP,2013-02-23 07:57:00,
2013-02-22 23:59:00,35.1,32.3,29.89,SSW,202,0.0,0.0,90,0.00,,,0.45,WUHU21636XXSP,2013-02-23 07:59:00,